[[{"header":{"parameterUnit":"m.s-1","parameterCategory":1,"la1":30.6,"la2":29.2853,"lo1":-89.7004,"lo2":-87.6739,"dx":0.0162,"dy":0.0183,"nx":112,"ny":82,"refTime":"2022-11-14T06:00:00:Z","depth":0,"parameterNumber":2,"parameterNumberName":"U-component_of_WINDS"},"data":[0.0,0.0,0.0,0.0,0.0,0.0,0.0,0.0,0.0,0.0,0.0,0.0,0.0,0.0,0.0,0.0,0.0,0.0,0.0,0.0,0.0,0.0,0.0,0.0,0.0,0.0,0.0,0.0,0.0,0.0,0.0,0.0,0.0,0.0,0.0,0.0,0.0,0.0,0.0,0.0,0.0,0.0,0.0,0.0,0.0,0.0,0.0,0.0,0.0,0.0,0.0,0.0,0.0,0.0,0.0,0.0,0.0,0.0,0.0,0.0,0.0,0.0,0.0,0.0,0.0,0.0,0.0,0.0,0.0,0.0,0.0,0.0,0.0,0.0,0.0,0.0,0.0,0.0,0.0,0.0,0.0,0.0,0.0,0.0,0.0,0.0,0.0,0.0,0.0,0.0,6.4062,6.832,7.1484,7.2969,7.207,7.1992,6.9062,6.2148,0.0,0.0,0.0,0.0,0.0,0.0,0.0,0.0,0.0,0.0,0.0,0.0,0.0,0.0,0.0,0.0,0.0,0.0,0.0,0.0,0.0,0.0,0.0,0.0,0.0,0.0,0.0,0.0,0.0,0.0,0.0,0.0,0.0,0.0,0.0,0.0,0.0,0.0,0.0,0.0,0.0,0.0,0.0,0.0,0.0,0.0,0.0,0.0,0.0,0.0,0.0,0.0,0.0,0.0,0.0,0.0,0.0,0.0,0.0,0.0,0.0,0.0,0.0,0.0,0.0,0.0,0.0,0.0,0.0,0.0,0.0,0.0,0.0,0.0,0.0,0.0,0.0,0.0,0.0,0.0,0.0,0.0,0.0,0.0,0.0,0.0,0.0,0.0,0.0,0.0,0.0,0.0,0.0,0.0,0.0,0.0,0.0,0.0,0.0,0.0,0.0,0.0,0.0,0.0,6.2773,7.0586,7.2539,7.2969,7.207,7.1992,6.9062,6.2148,0.0,0.0,0.0,0.0,0.0,0.0,0.0,0.0,0.0,0.0,0.0,0.0,0.0,0.0,0.0,0.0,0.0,0.0,0.0,0.0,0.0,0.0,0.0,0.0,0.0,0.0,0.0,0.0,0.0,0.0,0.0,0.0,0.0,0.0,0.0,0.0,0.0,0.0,0.0,0.0,0.0,0.0,0.0,0.0,0.0,0.0,0.0,0.0,0.0,0.0,0.0,0.0,0.0,0.0,0.0,0.0,0.0,0.0,0.0,0.0,0.0,0.0,0.0,0.0,0.0,0.0,0.0,0.0,0.0,0.0,0.0,0.0,0.0,0.0,0.0,0.0,0.0,0.0,0.0,0.0,0.0,0.0,0.0,0.0,0.0,0.0,0.0,0.0,0.0,0.0,0.0,0.0,0.0,0.0,0.0,0.0,0.0,0.0,0.0,0.0,0.0,0.0,0.0,6.2812,6.7851,7.414,7.5586,7.539,7.3555,7.3398,7.0078,6.2187,6.0117,0.0,0.0,0.0,0.0,0.0,0.0,0.0,0.0,0.0,0.0,0.0,0.0,0.0,0.0,0.0,0.0,0.0,0.0,0.0,0.0,0.0,0.0,0.0,0.0,0.0,0.0,0.0,0.0,0.0,0.0,0.0,0.0,0.0,0.0,0.0,0.0,0.0,0.0,0.0,0.0,0.0,0.0,0.0,0.0,0.0,0.0,0.0,0.0,0.0,0.0,0.0,0.0,0.0,0.0,0.0,0.0,0.0,0.0,0.0,0.0,0.0,0.0,0.0,0.0,0.0,0.0,0.0,0.0,0.0,0.0,0.0,0.0,0.0,0.0,0.0,0.0,0.0,0.0,0.0,0.0,0.0,0.0,0.0,0.0,0.0,0.0,0.0,0.0,0.0,0.0,0.0,0.0,0.0,0.0,0.0,0.0,0.0,0.0,0.0,0.0,0.0,0.0,6.9531,7.375,7.6875,7.7969,7.7617,7.539,7.4648,7.0859,6.2812,6.0156,0.0,0.0,0.0,0.0,0.0,0.0,0.0,0.0,0.0,0.0,0.0,0.0,0.0,0.0,0.0,0.0,0.0,0.0,0.0,0.0,0.0,0.0,0.0,0.0,0.0,0.0,0.0,0.0,0.0,0.0,0.0,0.0,0.0,0.0,0.0,0.0,0.0,0.0,0.0,0.0,0.0,0.0,0.0,0.0,0.0,0.0,0.0,0.0,0.0,0.0,0.0,0.0,0.0,0.0,0.0,0.0,0.0,0.0,0.0,0.0,0.0,0.0,0.0,0.0,0.0,0.0,0.0,0.0,0.0,0.0,0.0,0.0,0.0,0.0,0.0,0.0,0.0,0.0,0.0,0.0,0.0,0.0,0.0,0.0,0.0,0.0,0.0,0.0,0.0,0.0,0.0,0.0,0.0,0.0,0.0,0.0,0.0,0.0,0.0,0.0,0.0,0.0,7.2344,7.7773,7.7265,7.7969,7.8086,7.7109,7.4805,7.0742,6.4492,6.0273,0.0,0.0,0.0,0.0,0.0,0.0,0.0,0.0,0.0,0.0,0.0,0.0,0.0,0.0,0.0,0.0,0.0,0.0,0.0,0.0,0.0,0.0,0.0,0.0,0.0,0.0,0.0,0.0,0.0,0.0,0.0,0.0,0.0,0.0,0.0,0.0,0.0,0.0,0.0,0.0,0.0,0.0,0.0,0.0,0.0,0.0,0.0,0.0,0.0,0.0,0.0,0.0,0.0,0.0,0.0,0.0,0.0,0.0,0.0,0.0,0.0,0.0,0.0,0.0,0.0,0.0,0.0,0.0,0.0,0.0,0.0,0.0,0.0,0.0,0.0,0.0,0.0,0.0,0.0,0.0,0.0,0.0,0.0,0.0,0.0,0.0,0.0,0.0,0.0,0.0,0.0,0.0,0.0,0.0,0.0,0.0,0.0,0.0,0.0,0.0,0.0,0.0,7.1875,7.7383,0.0,8.1953,8.1719,7.9726,7.8672,7.414,6.4883,0.0,0.0,0.0,0.0,0.0,0.0,0.0,0.0,0.0,0.0,0.0,0.0,0.0,0.0,0.0,0.0,0.0,0.0,0.0,0.0,0.0,0.0,0.0,0.0,0.0,0.0,0.0,0.0,0.0,0.0,0.0,0.0,0.0,0.0,0.0,0.0,0.0,0.0,0.0,0.0,0.0,0.0,0.0,0.0,0.0,0.0,0.0,0.0,0.0,0.0,0.0,0.0,0.0,0.0,0.0,0.0,0.0,0.0,0.0,0.0,0.0,0.0,0.0,0.0,0.0,0.0,0.0,0.0,0.0,0.0,0.0,0.0,0.0,0.0,0.0,0.0,0.0,0.0,0.0,0.0,0.0,0.0,0.0,0.0,0.0,0.0,0.0,0.0,0.0,0.0,0.0,0.0,0.0,0.0,0.0,0.0,0.0,0.0,0.0,0.0,0.0,0.0,6.6562,7.3008,7.8711,0.0,8.414,8.3867,8.2383,8.1484,7.6562,6.6172,0.0,0.0,0.0,0.0,0.0,0.0,0.0,0.0,0.0,0.0,0.0,0.0,0.0,0.0,0.0,0.0,0.0,0.0,0.0,0.0,0.0,0.0,0.0,0.0,0.0,0.0,0.0,0.0,0.0,0.0,0.0,0.0,0.0,0.0,0.0,0.0,0.0,0.0,0.0,0.0,0.0,0.0,0.0,0.0,0.0,0.0,0.0,0.0,0.0,0.0,0.0,0.0,0.0,0.0,0.0,0.0,0.0,0.0,0.0,0.0,0.0,0.0,0.0,0.0,0.0,0.0,0.0,0.0,0.0,0.0,0.0,0.0,0.0,0.0,0.0,0.0,0.0,0.0,0.0,0.0,0.0,0.0,0.0,0.0,0.0,0.0,0.0,0.0,0.0,0.0,0.0,0.0,0.0,0.0,0.0,0.0,0.0,0.0,0.0,0.0,0.0,0.0,6.8008,7.6445,8.2656,8.3515,8.3633,8.3984,8.4844,8.2539,7.7383,0.0,0.0,0.0,0.0,0.0,0.0,0.0,0.0,0.0,0.0,0.0,0.0,0.0,0.0,0.0,0.0,0.0,0.0,0.0,0.0,0.0,0.0,0.0,0.0,0.0,0.0,0.0,0.0,0.0,0.0,0.0,0.0,0.0,0.0,0.0,0.0,0.0,0.0,0.0,0.0,0.0,0.0,0.0,0.0,0.0,0.0,0.0,0.0,0.0,0.0,0.0,0.0,0.0,0.0,0.0,0.0,0.0,0.0,0.0,0.0,0.0,0.0,0.0,0.0,0.0,0.0,0.0,0.0,0.0,0.0,0.0,0.0,0.0,0.0,0.0,0.0,0.0,0.0,0.0,0.0,0.0,0.0,0.0,0.0,0.0,0.0,0.0,0.0,0.0,0.0,0.0,0.0,0.0,0.0,0.0,0.0,0.0,0.0,0.0,0.0,0.0,0.0,0.0,6.9609,7.7187,8.3086,8.5195,8.5429,8.5547,8.5781,8.4531,7.9297,6.8867,0.0,0.0,0.0,0.0,0.0,0.0,0.0,0.0,0.0,0.0,0.0,0.0,0.0,0.0,0.0,0.0,0.0,0.0,0.0,0.0,0.0,0.0,0.0,0.0,0.0,0.0,0.0,0.0,0.0,0.0,0.0,0.0,0.0,0.0,0.0,0.0,0.0,0.0,0.0,0.0,0.0,0.0,0.0,0.0,0.0,0.0,0.0,0.0,0.0,0.0,0.0,0.0,0.0,0.0,0.0,0.0,0.0,0.0,0.0,0.0,0.0,0.0,0.0,0.0,0.0,0.0,0.0,0.0,0.0,0.0,0.0,0.0,0.0,0.0,0.0,0.0,0.0,0.0,0.0,0.0,0.0,0.0,0.0,0.0,0.0,0.0,0.0,0.0,0.0,0.0,0.0,0.0,0.0,0.0,0.0,0.0,0.0,0.0,0.0,0.0,0.0,0.0,7.0351,7.8086,8.4219,8.6484,8.6719,8.6992,8.7656,8.6914,8.2383,7.289,0.0,0.0,0.0,0.0,0.0,0.0,0.0,0.0,0.0,0.0,0.0,0.0,0.0,0.0,0.0,0.0,0.0,0.0,0.0,0.0,0.0,0.0,0.0,0.0,0.0,0.0,0.0,0.0,0.0,0.0,0.0,0.0,0.0,0.0,0.0,0.0,0.0,0.0,0.0,0.0,0.0,0.0,0.0,0.0,0.0,0.0,0.0,0.0,0.0,0.0,0.0,0.0,0.0,0.0,0.0,0.0,0.0,0.0,0.0,0.0,0.0,0.0,0.0,0.0,0.0,0.0,0.0,0.0,0.0,0.0,0.0,0.0,0.0,0.0,0.0,0.0,0.0,0.0,0.0,0.0,0.0,0.0,0.0,0.0,0.0,0.0,0.0,0.0,0.0,0.0,0.0,0.0,0.0,0.0,0.0,0.0,0.0,0.0,0.0,0.0,0.0,0.0,7.0703,7.9101,8.5586,8.7422,8.7461,8.8086,8.9844,8.9062,8.5664,7.9023,0.0,0.0,0.0,0.0,0.0,0.0,0.0,0.0,0.0,0.0,0.0,0.0,0.0,0.0,0.0,0.0,0.0,0.0,0.0,0.0,0.0,0.0,0.0,0.0,0.0,0.0,0.0,0.0,0.0,0.0,0.0,0.0,0.0,0.0,0.0,0.0,0.0,0.0,0.0,0.0,0.0,0.0,0.0,0.0,0.0,0.0,0.0,0.0,0.0,0.0,0.0,0.0,0.0,0.0,0.0,0.0,0.0,0.0,0.0,0.0,5.5195,0.0,0.0,0.0,0.0,0.0,0.0,0.0,0.0,0.0,0.0,0.0,0.0,0.0,0.0,0.0,0.0,0.0,0.0,0.0,0.0,0.0,0.0,0.0,0.0,0.0,0.0,0.0,0.0,0.0,0.0,0.0,0.0,0.0,0.0,0.0,0.0,0.0,0.0,0.0,0.0,0.0,7.2344,7.9844,8.582,8.8203,8.7265,8.7422,8.9804,8.8008,8.4648,7.9765,7.6367,0.0,0.0,0.0,0.0,0.0,0.0,0.0,0.0,0.0,0.0,0.0,0.0,0.0,0.0,0.0,0.0,0.0,0.0,0.0,0.0,0.0,0.0,0.0,0.0,0.0,0.0,0.0,0.0,0.0,0.0,0.0,0.0,0.0,0.0,0.0,0.0,0.0,0.0,0.0,0.0,0.0,0.0,0.0,0.0,0.0,0.0,0.0,0.0,0.0,0.0,0.0,0.0,0.0,0.0,0.0,0.0,0.0,0.0,0.0,0.0,5.5937,0.0,0.0,0.0,0.0,0.0,0.0,0.0,0.0,0.0,0.0,0.0,0.0,0.0,0.0,0.0,0.0,0.0,0.0,0.0,0.0,0.0,0.0,0.0,0.0,0.0,0.0,0.0,0.0,0.0,0.0,0.0,0.0,0.0,0.0,0.0,0.0,0.0,0.0,0.0,0.0,7.414,8.2031,8.8008,8.9765,8.9179,8.9179,9.0508,8.9414,8.7148,8.3672,7.9844,0.0,0.0,0.0,0.0,0.0,0.0,0.0,0.0,0.0,0.0,0.0,0.0,0.0,0.0,0.0,0.0,0.0,0.0,0.0,0.0,0.0,0.0,0.0,0.0,0.0,0.0,0.0,0.0,0.0,0.0,0.0,0.0,0.0,0.0,0.0,0.0,0.0,0.0,0.0,0.0,0.0,0.0,0.0,0.0,0.0,0.0,0.0,0.0,0.0,0.0,0.0,0.0,0.0,6.2344,6.3633,6.5039,6.5039,6.6289,6.8164,6.289,6.3086,6.6562,5.957,0.0,0.0,0.0,0.0,0.0,0.0,0.0,0.0,0.0,0.0,0.0,0.0,0.0,0.0,0.0,0.0,0.0,0.0,0.0,0.0,0.0,0.0,0.0,0.0,7.1953,7.3086,0.0,0.0,0.0,0.0,0.0,0.0,0.0,0.0,0.0,0.0,0.0,0.0,7.6797,8.4726,9.0312,9.1211,9.1172,9.1211,9.1484,9.125,9.0234,8.8281,8.3984,8.0156,0.0,0.0,0.0,0.0,0.0,0.0,0.0,0.0,0.0,0.0,0.0,0.0,0.0,0.0,0.0,0.0,0.0,0.0,0.0,0.0,0.0,0.0,0.0,0.0,0.0,0.0,0.0,0.0,0.0,0.0,0.0,0.0,5.2266,5.6406,0.0,0.0,0.0,0.0,0.0,0.0,0.0,0.0,0.0,0.0,0.0,0.0,0.0,6.1289,6.3281,6.6328,6.832,6.9219,7.1601,7.2851,7.3086,7.3086,7.3672,7.457,7.2265,0.0,6.8008,6.7617,0.0,0.0,0.0,0.0,0.0,0.0,0.0,0.0,0.0,0.0,0.0,0.0,0.0,0.0,0.0,0.0,0.0,0.0,0.0,0.0,0.0,0.0,7.6992,7.7812,7.9023,7.9726,0.0,7.2265,6.6562,6.664,6.6758,0.0,0.0,0.0,0.0,0.0,0.0,0.0,8.1758,8.6914,9.0312,9.1211,9.0625,9.0781,9.2304,9.1054,9.0351,9.0781,8.9453,8.6484,8.164,7.9453,0.0,0.0,0.0,0.0,0.0,0.0,0.0,0.0,0.0,0.0,0.0,0.0,0.0,0.0,0.0,0.0,0.0,0.0,0.0,0.0,0.0,0.0,0.0,0.0,0.0,0.0,0.0,0.0,0.0,5.1328,5.4844,5.8242,5.5664,5.3164,0.0,0.0,0.0,0.0,0.0,0.0,0.0,0.0,0.0,6.5351,6.582,6.7344,7.0078,7.1562,7.25,7.289,7.4062,7.4844,7.5351,7.5859,7.6523,7.7344,7.7031,7.6055,7.4414,7.1406,6.8906,6.6719,0.0,0.0,0.0,0.0,6.3125,6.3476,6.5898,6.7656,0.0,6.6211,0.0,0.0,0.0,0.0,0.0,0.0,0.0,0.0,0.0,0.0,7.9062,8.1367,8.2578,8.332,8.3828,8.0664,7.6719,0.0,7.2539,7.039,6.3594,0.0,0.0,0.0,0.0,7.9961,8.4492,8.8828,9.1601,9.1992,9.1679,9.1562,9.1836,9.1601,9.1211,9.0625,9.0664,8.9492,8.6758,8.3594,7.9062,0.0,0.0,0.0,0.0,0.0,0.0,0.0,0.0,0.0,0.0,0.0,0.0,0.0,0.0,0.0,0.0,0.0,0.0,0.0,0.0,0.0,0.0,0.0,0.0,0.0,0.0,0.0,0.0,5.5273,5.7734,5.9922,5.9062,5.7226,0.0,0.0,0.0,0.0,0.0,0.0,6.3672,6.5117,6.7422,7.0625,7.0937,7.2305,7.4922,7.5351,7.5586,7.5586,7.582,7.625,7.6875,7.7539,7.832,7.918,7.9765,8.0273,8.0312,7.5117,7.3008,7.2773,7.0664,6.9023,6.8047,6.9336,6.9844,7.0156,7.2539,7.418,7.5,7.332,0.0,7.1875,6.9336,0.0,0.0,0.0,0.0,7.2344,7.6211,7.8515,8.0508,8.3281,8.4609,8.539,8.6054,8.6211,8.4804,0.0,7.918,7.6797,6.9258,0.0,0.0,0.0,0.0,8.414,8.7422,9.0625,9.2617,9.2617,9.2617,9.2344,9.1679,9.2226,9.2031,9.0742,9.1289,9.125,9.0351,8.7265,8.4023,8.0742,0.0,0.0,0.0,0.0,0.0,0.0,0.0,0.0,0.0,0.0,0.0,0.0,0.0,0.0,0.0,0.0,0.0,0.0,0.0,0.0,0.0,0.0,0.0,0.0,0.0,0.0,0.0,0.0,0.0,6.2695,6.4883,0.0,0.0,0.0,0.0,6.3789,6.4805,6.6484,6.8984,6.9922,7.1601,7.4258,7.5156,7.5664,7.582,7.7461,7.8281,7.832,7.9062,7.9453,7.9492,7.9531,8.0039,8.0898,8.0937,8.1875,8.3203,8.039,7.7851,7.5625,7.4648,7.2734,7.082,7.3359,7.4297,7.4883,7.9023,8.0547,8.0742,8.1445,7.9492,7.6836,7.668,7.4297,0.0,0.0,7.5508,7.7422,8.0078,8.2031,8.3594,8.4609,8.5508,8.6133,8.6172,8.6211,8.6562,0.0,8.8047,8.6601,8.2109,0.0,8.2969,8.2851,8.3945,8.6601,9.164,9.2461,9.2617,9.2617,9.2617,9.2578,9.2539,9.2578,9.2578,9.2461,9.25,9.2148,9.1289,9.1015,8.8554,8.3515,8.0703,0.0,0.0,0.0,0.0,0.0,0.0,0.0,0.0,0.0,0.0,0.0,0.0,0.0,0.0,0.0,0.0,0.0,0.0,0.0,0.0,0.0,0.0,0.0,0.0,0.0,0.0,0.0,0.0,6.3789,6.6133,0.0,6.4101,6.6601,6.8203,6.7617,7.0976,7.3242,7.3594,7.4961,7.6133,7.707,7.789,7.8359,7.8359,7.8945,7.9258,7.9297,8.0117,8.0547,8.0586,8.1719,8.2383,8.2695,8.3281,8.3867,8.4375,8.3437,8.2187,8.0781,7.9883,7.8984,7.8281,7.9219,7.957,7.9765,8.1328,8.1836,8.1992,8.2851,8.2304,8.1406,8.1992,8.1289,8.0547,8.1719,8.25,8.332,8.4804,8.5625,8.6172,8.6484,8.6797,8.7187,8.7695,8.8242,8.8984,9.0156,8.9453,8.7539,8.3789,8.6133,8.7617,8.4844,8.7031,8.9883,9.2304,9.2617,9.2617,9.2617,9.2617,9.2617,9.2617,9.2617,9.2617,9.2617,9.2617,9.2461,9.2148,9.2148,9.1015,8.8594,8.7656,8.2148,0.0,0.0,0.0,0.0,0.0,0.0,0.0,0.0,0.0,0.0,0.0,0.0,0.0,0.0,0.0,0.0,0.0,0.0,0.0,0.0,0.0,0.0,0.0,0.0,0.0,0.0,6.5273,6.4414,6.789,6.9336,6.6719,7.0117,7.2461,7.2461,7.5664,7.75,7.7187,7.8281,7.9023,7.9336,7.9844,8.0273,8.0586,8.0859,8.1015,8.1015,8.1914,8.2304,8.2344,8.3515,8.4023,8.4062,8.4648,8.5078,8.5312,8.5039,8.4726,8.4375,8.3515,8.3164,8.3164,8.3164,8.3164,8.3203,8.3515,8.3828,8.414,8.4726,8.4922,8.5039,8.5586,8.5781,8.5859,8.6133,8.6211,8.6328,8.6914,8.707,8.7148,8.7422,8.75,8.7656,8.8164,8.9179,9.0156,9.0742,9.039,8.9219,8.664,8.9023,9.0156,8.6719,8.8867,9.0976,9.125,9.2031,9.2617,9.2617,9.3125,9.3476,9.3476,9.2148,9.1914,9.3398,9.1836,9.1523,9.2969,9.1367,9.0039,8.914,8.8281,8.332,7.418,0.0,0.0,0.0,0.0,0.0,0.0,0.0,0.0,0.0,0.0,0.0,0.0,0.0,0.0,0.0,0.0,0.0,0.0,0.0,0.0,0.0,0.0,0.0,6.1914,6.5625,6.7422,6.4961,7.0586,7.3672,7.1133,7.4023,7.6719,7.8359,7.8555,7.8906,7.9687,7.9765,8.0195,8.1054,8.1094,8.1523,8.2383,8.3203,8.3633,8.3633,8.4531,8.4922,8.4922,8.4961,8.4961,8.4961,8.4961,8.5469,8.6172,8.5312,8.5469,8.6133,8.5234,8.4883,8.4883,8.4883,8.4883,8.5039,8.5859,8.6719,8.7422,8.7461,8.7461,8.7461,8.75,8.75,8.7304,8.6484,8.625,8.625,8.625,8.625,8.6484,8.7344,8.7578,8.7578,8.7578,8.8867,9.0039,9.0039,9.1445,9.2344,9.1523,9.1367,9.082,8.9101,8.957,0.0,8.8984,9.1054,9.2617,9.2578,9.4101,9.5156,9.5078,9.125,9.0664,9.4922,9.0508,8.9609,9.3789,8.9101,8.6015,8.5156,8.2461,8.0273,7.8633,0.0,0.0,0.0,0.0,0.0,0.0,0.0,0.0,0.0,0.0,0.0,0.0,0.0,0.0,0.0,0.0,0.0,0.0,0.0,0.0,0.0,0.0,6.6406,6.6406,6.9023,7.1406,7.2578,7.4375,7.5508,7.543,7.7383,7.8594,7.8515,7.9648,8.039,8.0625,8.125,8.1992,8.2851,8.3515,8.3945,8.4179,8.4414,8.4531,8.4531,8.5429,8.5859,8.5859,8.6484,8.6797,8.6797,8.6797,8.6914,8.7109,8.6875,8.6914,8.6992,8.5508,8.4883,8.4883,8.4883,8.4883,8.4922,8.5156,8.539,8.5703,8.6367,8.6562,8.6679,8.7304,8.75,8.7461,8.7226,8.7148,8.7148,8.7148,8.7578,8.8086,8.832,8.8867,8.9297,8.9297,9.0156,9.0937,9.0937,9.1836,9.2734,9.3125,9.3203,9.3008,9.2539,9.2656,0.0,9.25,9.3086,9.3047,9.1797,9.3203,9.375,9.2461,9.2422,9.3242,9.5078,9.3867,9.3594,9.4804,9.2851,9.1367,9.0508,8.5469,8.2344,0.0,0.0,0.0,0.0,0.0,0.0,0.0,0.0,0.0,0.0,0.0,0.0,0.0,0.0,0.0,0.0,0.0,0.0,0.0,0.0,0.0,0.0,6.8164,7.1133,7.1875,7.3242,7.4726,7.625,7.707,7.7578,7.7734,7.8945,7.9805,8.0078,8.0976,8.1875,8.2578,8.3125,8.3789,8.4648,8.5195,8.5625,8.5976,8.5976,8.5976,8.6015,8.6484,8.6758,8.6758,8.7265,8.75,8.75,8.75,8.75,8.75,8.75,8.75,0.0,0.0,0.0,0.0,0.0,8.5976,8.5976,8.5976,8.5976,8.6054,8.6562,8.6758,8.6914,8.7734,8.8008,8.8086,8.8437,8.8554,8.8554,8.8554,8.8906,8.9258,8.9258,8.9648,9.0,9.0,9.0664,9.1289,9.1289,9.1992,0.0,9.375,9.3281,9.2578,9.1836,9.2031,9.2148,9.1758,9.2695,9.3242,9.2969,9.4453,9.5234,9.457,9.3828,0.0,0.0,0.0,9.2851,9.25,9.1679,0.0,0.0,0.0,0.0,0.0,0.0,0.0,0.0,7.5859,7.4258,0.0,0.0,0.0,0.0,0.0,0.0,0.0,0.0,0.0,0.0,0.0,0.0,0.0,0.0,0.0,0.0,7.1797,7.5664,7.7539,7.7695,7.7617,7.7617,7.8867,7.9492,7.8984,7.957,8.0664,8.2304,8.2539,8.332,8.4961,0.0,0.0,0.0,0.0,8.6758,8.7617,8.7656,8.7695,8.7773,8.7773,8.7773,8.7773,8.7773,8.7773,8.7773,8.7773,8.7773,8.7773,8.7773,8.7773,8.7773,8.7656,8.7695,8.7773,8.7773,8.7773,8.7773,8.7773,0.0,0.0,8.7773,8.7773,8.7929,8.8633,8.8867,8.9023,8.9765,9.0,9.0,9.0,9.0156,9.0273,9.0273,9.0429,9.0586,9.0586,9.1133,9.1601,9.1601,9.2226,9.3008,9.3789,9.2617,9.1054,8.9531,9.0039,9.0312,8.9531,9.1523,9.3554,9.4922,0.0,0.0,9.8242,9.5156,9.4453,9.75,9.3476,9.0586,8.9609,8.8789,8.7656,8.6094,8.5195,8.6679,9.0586,8.9609,8.9922,9.1172,7.9453,7.6914,0.0,0.0,0.0,0.0,0.0,0.0,0.0,0.0,0.0,0.0,0.0,0.0,0.0,0.0,0.0,7.1719,7.5273,7.8594,8.0976,8.0703,8.0273,8.0273,7.9922,8.0195,8.1445,8.1719,8.2226,8.3281,8.3984,8.4844,8.5898,8.5937,8.6367,8.7226,8.7265,8.7656,8.8476,8.8476,8.8828,8.9531,0.0,0.0,8.9531,8.9531,8.9531,8.9531,8.9531,8.9531,8.9531,8.9531,8.9531,8.9453,8.875,8.8906,8.9531,8.9531,8.9531,8.9531,8.9531,8.9531,8.9531,8.9531,8.9531,8.9531,8.9687,8.9765,0.0,8.9961,9.0,9.0,9.0,9.1054,9.2109,9.2109,9.3164,9.4179,9.4179,9.3789,9.3398,9.3398,9.3515,9.3711,9.3867,9.3633,9.3281,9.2969,9.3633,9.414,9.3945,9.5,9.5351,9.4258,9.5703,9.5937,9.3984,9.5625,9.6992,9.7656,9.7422,9.6562,9.5039,9.4179,9.3554,9.3203,9.2344,9.2656,9.4179,9.2617,9.2031,9.2265,8.8359,8.7148,0.0,0.0,0.0,0.0,0.0,0.0,0.0,0.0,0.0,0.0,0.0,6.5625,6.7773,0.0,7.3359,7.5547,7.8437,8.1015,8.2695,8.2969,8.2773,8.2344,8.1914,8.1992,8.2851,8.3359,8.3945,8.4844,8.5312,8.5937,8.6797,8.6836,8.7226,8.8086,8.8086,8.8515,8.9336,8.9336,8.957,9.0,9.0,9.0,9.0,9.0,9.0,9.0,9.0,9.0,9.0,9.0,9.0273,9.0625,9.0156,9.0,9.0,9.0,9.0,9.0,9.0,9.0,9.0,9.0,9.0,9.0156,9.1054,9.1289,9.1484,9.2344,9.2617,9.2617,9.2617,9.3242,9.3906,9.3906,9.457,9.5195,9.5195,9.4844,9.4531,9.4531,9.4531,9.4531,9.4531,9.4531,9.4531,9.4531,9.4922,9.5195,9.5195,9.5586,9.5859,9.582,9.6562,9.6758,9.5898,9.6601,9.7461,9.8281,9.8359,9.8164,9.7773,9.6914,9.6054,9.5234,9.4765,9.4531,9.4531,9.3242,9.2617,9.2578,9.082,8.9765,0.0,0.0,0.0,0.0,0.0,0.0,0.0,6.1562,6.3437,6.7109,6.8555,6.9883,7.2265,7.457,7.6836,7.9101,8.1484,8.3359,8.4258,8.4804,8.5,8.4648,8.414,8.3906,8.4101,8.4726,8.5508,8.6406,8.6445,8.6758,8.7461,8.7656,8.8008,8.8633,8.8814,8.93,9.0159,9.0181,9.0265,9.0422,9.0422,9.0422,9.0422,9.0575,9.0653,9.0653,9.0849,9.0927,9.0927,9.0927,9.1317,9.1945,9.1991,9.1562,9.0937,9.082,9.0742,9.0781,9.0937,9.1015,9.1015,9.1015,9.1015,9.1289,9.2695,9.3125,9.3398,9.4804,9.5195,9.5195,9.5195,9.5312,9.5469,9.5469,9.5586,9.5703,9.5703,9.5547,9.5469,9.5469,9.5469,9.5469,9.5469,9.5586,9.5586,9.5234,9.5351,9.5469,9.5469,9.5586,9.6211,9.7578,9.7695,9.8047,9.8945,9.7617,9.7383,9.8906,9.8164,9.7929,9.8476,9.7695,9.664,9.5469,9.5625,9.5429,9.4883,9.3867,9.3281,9.3047,9.1133,8.9804,5.8008,5.8633,6.0156,6.082,6.2148,6.4531,0.0,6.9961,7.0742,7.5039,7.6601,7.7734,7.9531,8.0703,8.1797,8.2851,8.457,8.6054,8.6953,8.6484,8.6562,8.7969,8.6133,8.5078,8.582,8.6015,8.6406,8.7304,8.7344,8.7383,8.75,8.8164,8.8554,8.8515,8.9262,9.0055,9.0791,9.082,9.1145,9.1859,9.1859,9.1859,9.1898,9.2666,9.3003,9.3042,9.3835,9.4186,9.4186,9.4186,9.4225,9.4328,9.4439,9.4453,9.4297,9.3672,9.3476,9.3554,9.4336,9.4609,9.4609,9.4609,9.4609,9.4648,9.4844,9.4922,9.4961,9.5156,9.5195,9.5195,9.5195,9.5781,9.6367,9.6367,9.6914,9.7422,9.7422,9.6875,9.6367,9.6367,9.6367,9.6367,9.6367,9.6953,9.6914,9.5429,9.5859,9.6367,9.6367,9.6992,9.75,9.7695,9.7695,9.8047,9.8945,9.8125,9.7969,9.8945,9.8164,9.7422,9.6797,9.5937,9.5742,9.6328,9.707,9.7734,9.8437,9.6836,9.5664,9.4844,9.2344,9.0703,6.3594,6.4023,6.4765,6.7109,6.8242,6.9609,7.2773,7.3633,7.4648,7.7969,7.9765,8.0937,8.164,8.289,8.4258,8.5664,8.6484,8.7265,8.8086,8.789,8.7734,8.7969,8.7031,8.6523,8.6914,8.7383,8.7812,8.8164,8.8672,8.8906,8.8828,8.914,8.9492,8.9883,9.0245,9.1069,9.2316,9.2353,9.2782,9.3597,9.3597,9.3613,9.358,9.3904,9.4059,9.3995,9.4382,9.4538,9.4538,9.4538,9.4538,9.4524,9.4579,9.4606,9.4617,9.464,9.4648,9.4726,9.5078,9.5195,9.5195,9.5195,9.5195,9.5273,9.5781,9.5976,9.6054,9.6523,9.664,9.664,9.664,9.6914,9.7187,9.7187,9.7461,9.7695,9.7695,9.7422,9.7187,9.7187,9.7187,9.7187,9.7187,9.7461,9.7461,9.6758,9.6953,9.7187,9.7187,9.75,9.7695,9.7695,9.7695,9.7851,9.8203,9.7461,9.7578,9.8906,9.8164,9.7773,9.7969,9.7109,9.6367,9.5742,9.6054,9.6406,9.6797,9.6094,9.582,9.5937,9.4336,9.3359,6.664,6.7695,6.8711,7.1914,7.3437,7.4531,7.6015,7.7031,7.8242,8.0351,8.1953,8.3164,8.3633,8.4765,8.6172,8.789,8.8398,8.8672,8.9023,8.9062,8.875,8.7929,8.7773,8.7773,8.777,8.8358,8.8789,8.8981,8.9604,8.9881,8.9726,9.0169,9.0633,9.1101,9.1562,9.2364,9.3531,9.3562,9.3901,9.4519,9.4519,9.4459,9.4447,9.4679,9.4872,9.4993,9.4993,9.4993,9.4993,9.4993,9.4993,9.4993,9.5037,9.5081,9.5101,9.555,9.5559,9.5415,9.5702,9.582,9.5859,9.5898,9.5898,9.6015,9.664,9.6836,9.6953,9.7539,9.7695,9.7695,9.7695,9.7695,9.7695,9.7695,9.7695,9.7695,9.7695,9.7695,9.7695,9.7695,9.789,9.8047,9.8047,9.8242,9.8437,9.8437,9.8437,9.8242,9.7773,9.7695,9.7695,9.7695,9.7695,9.7695,9.7695,9.7187,9.7344,9.8554,9.7851,9.7656,9.8281,9.7695,9.6797,9.5586,9.6015,9.6133,9.5898,9.6133,9.6328,9.6484,9.5859,9.5429,6.5195,6.8086,7.1211,7.3867,7.6992,7.9687,8.0586,8.1484,8.2383,8.3281,8.4219,8.5351,8.7031,8.7383,8.7969,8.9648,9.0625,9.0898,9.0078,8.9961,8.9648,8.8789,8.8672,8.8629,8.8468,8.8625,8.902,8.9717,8.9789,8.974,8.9531,9.1058,9.1848,9.1694,9.3261,9.4062,9.3985,9.3985,9.3985,9.4023,9.4023,9.4023,9.4062,9.4872,9.5721,9.6454,9.6454,9.6454,9.6454,9.6454,9.6454,9.6454,9.6656,9.6733,9.6733,9.6895,9.6449,9.5953,9.6981,9.7383,9.7461,9.7578,9.7617,9.7617,9.7656,9.7656,9.7656,9.7695,9.7695,9.7695,9.7695,9.7695,9.7695,9.7695,9.7695,9.7695,9.7695,9.7695,9.7695,9.7695,9.8398,9.8945,9.8945,9.9648,10.0195,10.0195,10.0195,9.9609,9.7929,9.7695,9.7695,9.7695,9.7695,9.7695,9.7695,9.7695,9.7695,9.7734,9.6992,9.6562,9.6562,9.6562,9.6523,9.6445,9.8047,9.8476,9.7617,9.8476,9.8047,9.6484,9.6484,9.6015,6.9648,7.3047,7.6406,7.9726,8.1875,8.3242,8.3515,8.3828,8.4101,8.4414,8.4687,8.5078,8.5664,8.6719,8.7851,8.8945,9.0351,9.0937,8.9922,9.039,9.0273,8.8672,8.8977,8.95,9.0023,9.0198,9.0334,9.0383,9.095,9.1392,9.1743,9.2285,9.2801,9.3196,9.3743,9.4321,9.486,9.4844,9.5142,9.5644,9.5615,9.5581,9.5581,9.5819,9.6127,9.6397,9.6397,9.6666,9.7129,9.6589,9.6705,9.7129,9.663,9.6476,9.6512,9.668,9.6599,9.6493,9.6966,9.7266,9.7455,9.7494,9.7576,9.7695,9.7695,9.7695,9.7695,9.7695,9.7695,9.7695,9.7695,9.7695,9.7851,9.8437,9.8554,9.8711,9.9297,9.9414,9.9414,9.9414,9.9648,9.9844,9.9844,10.0117,10.0312,10.0312,9.9804,9.9219,9.8633,9.8047,9.7695,9.7695,9.7695,9.7695,9.7695,9.7695,9.7695,9.7695,9.7461,9.7304,9.7304,9.7304,9.7031,9.6523,9.7031,9.7187,9.6914,9.7187,9.7344,9.7304,9.7304,9.7148,7.3787,7.6848,7.9368,8.3001,8.4329,8.4917,8.5507,8.5664,8.582,8.6406,8.5859,8.5429,8.6054,8.6875,8.7773,8.8554,9.0351,9.1211,8.9961,9.0531,9.0481,8.901,8.95,9.0169,9.0664,9.1075,9.1218,9.1086,9.1828,9.2458,9.2767,9.335,9.3903,9.4329,9.4674,9.5097,9.5635,9.5665,9.6043,9.6853,9.6512,9.6705,9.7283,9.6902,9.6903,9.7173,9.7173,9.748,9.7904,9.7403,9.748,9.7904,9.7403,9.7173,9.721,9.7341,9.7401,9.7426,9.7194,9.7238,9.7455,9.7493,9.7793,9.8119,9.7771,9.7927,9.8084,9.7771,9.7695,9.7773,9.8086,9.8164,9.8398,9.9258,9.9453,9.9609,10.0195,10.0312,10.0312,10.0312,10.0586,10.0781,10.0781,10.1015,10.1211,10.1211,10.0508,9.9804,9.9492,9.8984,9.8633,9.8633,9.8359,9.8281,9.8594,9.8047,9.7812,9.8125,9.7851,9.7695,9.7695,9.7695,9.7461,9.6953,9.6914,9.6797,9.6484,9.6797,9.7031,9.7265,9.7578,9.7695,7.7391,7.9486,8.0392,8.3873,8.4771,8.5143,8.675,8.7068,8.742,8.8943,8.734,8.6092,8.7617,8.7617,8.7617,8.8398,9.0625,9.1757,9.0231,9.0441,9.0469,8.972,9.0226,9.0618,0.0,0.0,9.1732,9.1774,9.2486,9.2823,9.2746,9.4249,9.5097,9.5058,9.5903,9.6288,9.6288,9.6288,9.6673,9.7442,9.6711,9.7173,9.8711,9.7904,9.8019,9.8788,9.8788,9.8827,9.8865,9.8827,9.8827,9.8865,9.8827,9.8788,9.8788,9.8826,9.8826,9.8669,9.7741,9.751,9.7603,9.7745,9.837,9.8892,9.8062,9.8422,9.8891,9.8071,9.7846,9.8007,9.8867,9.9062,9.9297,10.0195,10.039,10.039,10.039,10.039,10.039,10.039,10.1094,10.1719,10.1719,10.2383,10.289,10.289,10.2187,10.1406,10.0508,10.0312,10.0312,10.0312,9.957,9.9414,10.0195,9.8789,9.8164,9.8945,9.8203,9.7734,9.7695,9.7695,9.7695,9.7695,9.7695,9.7304,9.6562,9.7344,9.7304,9.6562,9.7344,9.7695,8.0728,8.3178,8.5131,8.7481,8.8085,8.8183,8.8633,8.7855,8.6803,8.5949,8.3909,8.1988,8.1198,8.3515,8.5625,8.5859,9.0146,9.2773,9.0725,9.1782,9.2087,9.0339,9.0787,9.1522,9.2126,9.2245,9.255,9.3114,9.2892,9.3207,9.4328,9.4789,9.5328,9.598,9.6172,9.6288,9.6288,9.6288,9.6403,9.6596,9.7019,9.7403,9.7865,9.825,9.8596,9.8788,9.8788,9.9173,9.9712,9.9058,9.9173,9.9712,9.9058,9.8788,9.8826,9.8957,9.9017,9.9011,9.897,9.8978,9.9025,9.9036,9.9449,9.9939,9.9719,9.9797,9.9914,9.9719,9.9647,9.9698,9.991,9.9952,10.0186,10.1085,10.1287,10.1406,10.2109,10.2187,10.2187,10.2187,10.2383,10.2617,10.2617,10.2812,10.289,10.289,10.2695,10.2304,10.1406,10.0703,10.0312,10.0312,10.0117,10.0117,10.0312,9.9883,9.9453,9.9023,9.8789,9.8398,9.7734,9.7695,9.7695,9.7695,9.7695,9.7617,9.7383,9.7617,9.7578,9.7383,9.7617,9.7695,8.3835,8.5806,8.7271,8.8768,8.9115,8.8768,8.7348,8.6401,8.512,8.2686,8.0608,7.9003,7.835,8.1875,8.4882,8.4834,9.0047,9.3465,9.1583,9.2325,9.2619,9.1544,9.171,9.2284,9.3127,9.3095,9.3364,9.4208,9.3864,9.4057,9.4943,9.5366,9.5789,9.6288,9.6288,9.6288,9.6288,9.7019,9.7403,9.7403,9.7865,9.8442,9.9173,9.9288,9.9558,9.9904,0.0,10.0212,10.0596,10.0096,10.0212,10.0596,10.0096,9.9904,9.9904,9.9972,10.0115,10.0076,10.0195,10.0412,10.0393,9.985,10.0091,10.0587,10.0399,10.0485,10.0798,10.0407,10.029,10.0415,10.0786,10.0903,10.1098,10.1996,10.2207,10.2296,10.2812,10.289,10.289,10.289,10.289,10.289,10.289,10.289,10.289,10.289,10.289,10.2695,10.2187,10.1719,10.1406,10.1406,10.1094,10.1015,10.1406,10.0703,10.0312,10.0117,9.9765,9.9179,9.832,9.8633,9.8476,9.7695,9.8086,9.8086,9.7695,9.7695,9.7695,9.7695,9.7695,9.7695,8.644,8.7752,8.8029,8.8986,8.9217,8.8336,8.4966,8.4061,8.2907,7.9274,7.7305,7.6406,7.6953,8.0817,8.3964,8.4284,8.9548,9.3287,9.2284,9.2406,9.2669,9.2861,9.2784,9.2977,9.382,9.3866,9.4214,9.5097,9.5174,9.5174,9.5174,9.5903,9.6288,9.6288,9.6519,9.6596,9.648,9.8019,9.8788,9.8788,9.8904,9.9712,10.1096,10.0481,10.0596,10.1289,10.1289,10.1289,10.1289,10.1289,10.1289,10.1289,10.1289,10.1289,10.1289,10.1289,10.1289,10.1289,10.1289,10.1514,10.1494,10.0493,10.0704,10.1198,10.0693,10.1085,10.1484,10.0812,10.0586,10.0798,10.1618,10.1813,10.2008,10.2711,10.2906,10.2888,10.2886,10.289,10.289,10.289,10.289,10.289,10.289,10.289,10.289,10.289,10.289,10.289,10.289,10.289,10.289,10.289,10.2187,10.2109,10.2812,10.1484,10.0898,10.1601,10.0898,10.0117,9.9219,9.9883,9.9609,9.8086,9.8789,9.875,9.7851,9.7851,9.7812,9.7695,9.7695,9.7695,8.8055,8.8983,8.9713,9.0559,9.0825,8.979,8.5808,8.399,8.1569,7.6171,7.3867,7.2812,7.2773,7.5923,7.9408,8.2054,8.6535,9.0236,9.1745,9.2541,9.3127,9.3512,9.3518,9.3828,9.4674,9.4789,9.5135,9.6019,9.6095,9.6095,9.6095,9.6211,9.6288,9.6288,9.7673,9.8019,9.7288,9.8288,9.8788,9.8788,9.9519,9.9981,10.0289,10.0904,10.1212,10.1289,10.1289,0.0,10.1289,10.1289,10.1289,10.1289,10.1289,10.1289,10.1289,10.1289,10.1289,10.1289,10.1289,10.1289,10.14,10.1378,10.1583,10.189,10.1816,10.1989,10.228,10.2195,10.2191,10.2398,10.2593,10.2711,10.2711,10.2906,10.2906,10.2906,10.2881,10.2882,10.289,10.289,10.289,10.289,10.289,10.289,10.289,10.289,10.289,10.289,10.289,10.289,10.289,10.289,10.2812,10.2695,10.289,10.2617,10.2187,10.1601,10.1484,10.1015,10.0117,10.0195,10.0195,9.9844,10.0,9.9648,9.8789,9.8789,9.8398,9.7695,9.7695,9.7695,8.741,8.8602,9.0098,9.0979,9.121,8.9563,8.3358,8.1381,7.8867,7.1836,7.0195,7.0117,7.039,7.4131,7.8124,8.0933,8.6038,9.0335,9.2276,9.3446,9.4326,9.4978,9.4635,9.4751,9.5597,9.5674,9.5865,9.6288,9.6673,9.6903,9.6903,9.7326,9.7596,9.7596,9.8789,9.9058,9.8173,9.9442,9.9904,9.9481,10.0289,10.0712,10.0712,10.1096,10.1289,10.1289,10.1289,0.0,10.1289,10.1289,10.1289,10.1289,10.1289,10.1289,10.1289,10.1289,10.1289,10.1289,10.1289,10.1289,10.1328,10.1514,10.1703,10.1918,10.2085,10.2222,10.2304,10.2495,10.2592,10.2683,10.282,10.2789,10.2789,10.2803,10.2888,10.2894,10.2894,10.2882,10.289,10.289,10.289,10.289,10.289,10.289,10.289,10.289,10.289,10.289,10.289,10.289,10.289,10.289,10.289,10.289,10.289,10.289,10.2695,10.2304,10.2304,10.1914,10.1015,10.1406,10.1211,10.0312,10.0703,10.0508,9.9687,9.9687,9.9219,9.8398,9.8398,9.8125,8.6799,8.841,9.0329,9.1056,9.121,8.9063,8.0876,7.8998,7.6705,6.8553,6.7422,6.8242,6.9336,7.2977,7.6824,7.999,8.4883,8.9332,9.2404,9.3671,9.4867,9.6403,9.598,9.5712,9.6249,9.6288,9.6288,9.6288,9.7211,9.7788,9.7788,9.8596,9.8981,9.8788,9.9788,9.9942,9.9096,10.0596,10.1019,10.0404,10.1019,10.1289,10.1289,10.1289,10.1289,10.1289,10.1289,10.1289,0.0,10.1289,10.1289,10.1289,10.1289,10.1289,10.1289,10.1289,10.1289,10.1289,10.1289,10.1289,10.1289,10.1289,10.1398,10.171,10.1902,10.2009,10.2085,10.23,10.2381,10.2499,10.2685,10.2711,10.2796,10.281,10.29,10.2905,10.2905,10.2882,10.2888,10.2889,10.2889,10.2889,10.2889,10.2889,10.2889,10.2889,10.2889,10.2889,10.2889,10.2889,10.289,10.289,10.289,10.289,10.289,10.289,10.289,10.289,10.289,10.2617,10.1914,10.25,10.2304,10.0898,10.1484,10.1406,10.0586,10.0586,10.0,9.8984,9.8984,9.8515,8.8089,8.9748,9.1095,9.1171,9.121,8.9063,8.0876,7.899,7.6714,6.8562,6.6953,6.7695,6.9883,7.0857,7.3119,7.8632,8.0195,8.3319,9.0844,9.2025,9.3409,9.698,9.7325,9.698,9.6365,9.6288,9.6288,9.6288,9.7789,9.8673,9.8673,9.9519,9.9634,9.8827,10.0404,10.0789,9.9981,10.0904,10.1289,10.1212,10.1289,10.1289,10.1289,10.1289,10.1289,10.1289,10.1289,10.1289,0.0,10.1289,10.1289,10.1289,10.1289,10.1289,10.1289,10.1289,10.1289,10.1289,10.1289,10.1289,10.1289,10.1289,10.1289,10.1289,10.1366,10.15,10.1696,10.182,10.1902,10.2179,10.248,10.2515,10.2593,10.2789,10.2913,10.2913,10.2913,10.2913,10.2888,10.2914,10.2917,10.2917,10.2917,10.2917,10.2917,10.2917,10.2917,10.2917,10.2917,10.2917,10.2884,10.289,10.289,10.289,10.289,10.289,10.289,10.289,10.289,10.289,10.2812,10.289,10.2812,10.2695,10.2695,10.2383,10.1484,10.1484,10.0586,9.8984,9.8984,9.8515,8.5714,8.843,9.121,9.121,9.0444,8.7837,8.0646,7.8216,7.5491,6.8353,6.6914,6.75,6.9453,6.9883,7.1562,7.6484,7.8555,8.1508,8.7209,8.9233,9.1375,9.4792,9.5213,9.5289,9.5481,9.6019,9.6711,9.771,9.8904,9.9788,10.0288,10.0596,10.0712,10.0327,10.1019,10.1096,10.0789,10.1096,10.1289,10.1289,10.1289,10.1289,10.1289,10.1289,10.1289,10.1289,10.1289,10.1289,0.0,10.1289,10.1289,10.1289,10.1289,10.1289,10.1289,10.1289,10.1289,10.1289,10.1289,10.1289,10.1289,10.1289,10.1289,10.1289,10.1289,10.1404,10.1511,10.1697,10.1796,10.1992,10.2382,10.2587,10.2711,10.2789,10.2789,10.2789,10.2789,10.2789,10.2796,10.281,10.2888,10.2888,10.2888,10.2888,10.2888,10.2888,10.2888,10.2888,10.2888,10.2888,10.2894,10.2905,10.2886,10.289,10.289,10.289,10.289,10.289,10.289,10.289,10.289,10.289,10.289,10.289,10.289,10.2695,10.2383,10.2383,10.1797,10.0586,10.0586,10.0117,8.4258,8.7622,9.0944,9.1479,8.9983,8.6803,8.0754,7.7532,7.4101,6.8125,6.6914,6.7422,6.9101,6.9453,7.0898,7.5195,7.7305,8.0117,8.5156,8.7269,8.9457,9.2564,9.3178,9.3599,9.4176,9.5712,9.725,9.8711,9.9635,10.048,10.1289,10.1289,10.1289,10.1289,10.1289,10.1289,10.1289,10.1289,10.1289,10.1289,10.1289,10.1289,10.1289,10.1289,10.1289,10.1289,10.1289,10.1289,0.0,10.1289,10.1289,10.1289,10.1289,10.1289,10.1289,10.1289,10.1289,10.1289,10.1289,10.1289,10.1289,10.1289,10.1289,10.1289,10.1289,10.1289,10.1289,10.1504,10.1696,10.1891,10.2285,10.2608,10.2789,10.2789,10.2789,10.2789,10.2789,10.2789,10.2789,10.2789,10.2789,10.2906,10.2906,10.2906,10.2906,10.2906,10.2906,10.2906,10.2906,10.2906,10.2906,10.2906,10.2914,10.2889,10.289,10.289,10.289,10.289,10.289,10.289,10.289,10.289,10.289,10.289,10.289,10.289,10.289,10.289,10.25,10.1601,10.1601,10.1094,8.483,8.799,9.0334,9.2059,9.0063,8.6415,8.1446,7.7151,7.2812,6.789,6.6914,6.7422,6.9101,6.9414,7.082,7.5195,7.5937,7.8437,8.5664,8.6708,8.7834,9.0846,9.2018,9.2524,9.2524,9.552,9.7865,9.8711,9.9634,0.0,10.1289,10.1289,10.1289,10.1289,10.1289,10.1289,10.1289,10.1289,10.1289,10.1289,10.1289,10.1289,10.1289,10.1289,10.1289,10.1289,10.1289,10.1289,0.0,10.1289,10.1289,10.1289,10.1289,10.1289,10.1289,10.1289,10.1289,10.1289,10.1289,10.1289,10.1289,10.1289,10.1289,10.1289,10.1289,10.1289,10.1289,10.1289,10.1703,10.2094,10.2094,10.2484,10.2789,10.2789,10.2789,10.2789,10.2789,10.2789,10.2789,10.2789,10.2789,10.2789,10.2789,10.2789,10.2789,10.2789,10.2789,10.2789,10.2789,10.2789,10.2789,10.2789,10.281,10.2797,10.289,10.289,10.289,10.289,10.289,10.289,10.289,10.289,10.289,10.289,10.289,10.289,10.289,10.289,10.25,10.1601,10.1601,10.1094,7.9131,8.213,8.4574,8.3362,8.1935,7.9831,7.6027,7.3325,7.0703,6.7539,6.6914,6.7226,6.8359,6.9023,7.082,7.5195,7.6406,7.8518,8.3465,8.5661,8.7622,9.0004,9.2618,9.4471,9.502,9.6057,9.7288,9.8673,9.9634,10.048,10.1289,10.1289,10.1289,10.1289,10.1289,10.1289,10.1289,10.1289,10.1289,10.1289,10.1289,10.1289,10.1289,10.1289,10.1289,10.1289,10.1289,10.1289,0.0,10.1289,10.1289,10.1289,10.1289,10.1289,10.1289,10.1289,10.1289,10.1289,10.1289,10.1289,10.1289,10.1289,10.1289,10.1289,10.1289,10.1712,10.2289,10.2904,10.289,10.2698,10.2698,10.271,10.2595,10.2595,10.2704,10.2789,10.2789,10.2789,10.2789,10.2789,10.2789,10.2789,10.2789,10.2789,10.2789,10.2789,10.2789,10.2789,10.2789,10.2789,10.2789,10.2789,10.2796,10.2788,10.289,10.289,10.289,10.289,10.289,10.289,10.289,10.289,10.289,10.289,10.289,10.289,10.289,10.289,10.2812,10.25,10.25,10.1992,7.5591,7.8593,8.0905,7.9644,7.83,7.6613,7.395,7.1377,6.9062,6.7265,6.6914,6.7187,6.8047,6.8867,7.0586,7.4219,7.5547,7.7692,8.2216,8.422,8.6406,8.9517,9.2357,9.4398,9.5212,9.6211,9.7326,9.8711,9.9634,10.0519,10.1289,10.1289,10.1289,10.1289,10.1289,10.1289,10.1289,10.1289,10.1289,10.1289,10.1289,10.1289,10.1289,10.1289,10.1289,10.1289,10.1289,10.1289,0.0,10.1289,10.1289,10.1289,10.1289,10.1289,10.1289,10.1289,10.1289,10.1289,10.1289,10.1289,10.1289,10.1289,10.1289,10.1404,10.2097,10.2404,10.2712,10.3289,10.3205,10.2895,10.2585,10.2409,10.24,10.2507,10.2595,10.2704,10.2781,10.2789,10.2789,10.2789,10.2789,10.2789,10.2789,10.2789,10.2789,10.2789,10.2789,10.2789,10.2789,10.2789,10.2789,10.2789,10.2789,10.281,10.2917,10.2886,10.2889,10.289,10.289,10.289,10.289,10.289,10.289,10.289,10.289,10.289,10.289,10.289,10.289,10.289,10.289,10.2617,0.0,7.648,7.8593,7.9142,7.7713,7.5735,7.4061,7.077,0.0,6.707,6.6914,6.7187,6.8086,6.8945,7.0312,7.2851,7.4099,7.6604,8.2053,8.3144,8.5113,8.9724,9.1757,9.3062,9.383,9.6057,9.7788,9.8711,9.9519,10.0404,10.1289,10.1289,10.1289,10.1289,10.1289,10.1289,10.1289,10.1289,10.1289,10.1289,10.1289,10.1289,10.1289,10.1289,10.1289,0.0,10.1289,10.1289,0.0,10.1289,10.1289,10.1289,10.1289,10.1289,10.1289,10.1289,10.1289,10.1289,10.1289,10.1289,10.1289,10.1289,10.1289,10.1597,10.3289,10.3289,10.2712,10.2789,10.29,10.2902,10.2012,10.1902,10.2078,10.24,10.2507,10.2607,10.2685,10.2781,10.2789,10.2789,10.2789,10.2789,10.2789,10.2789,10.2789,10.2789,10.2789,10.2789,10.2789,10.2789,10.2789,10.2789,10.2789,10.2789,10.2789,10.29,10.2921,10.289,10.289,10.289,10.289,10.289,10.289,10.289,10.289,10.289,10.289,10.289,10.289,10.289,10.289,10.289,6.7363,0.0,7.1866,7.0126,6.9856,6.9797,0.0,6.7798,6.7148,6.6953,6.6914,6.7305,6.8711,6.9601,7.146,7.5365,7.7103,7.9563,8.416,8.7935,9.1095,9.3522,9.4751,9.5481,9.5674,9.6249,9.7211,9.8711,9.8981,9.975,10.1212,10.1289,10.1289,10.1289,10.1289,10.1289,10.1289,10.1289,10.1289,10.1289,10.1289,10.1289,10.1289,10.1289,10.1289,10.1289,10.1289,0.0,10.1289,10.1289,10.1289,10.1289,10.1289,10.1289,10.1289,10.1289,10.1289,10.1289,10.1289,10.1289,10.1289,10.1289,10.1289,10.152,10.2597,10.3212,10.3712,10.4289,10.4099,10.3521,10.2597,10.2108,10.1778,10.1902,10.2183,10.2499,10.2607,10.2694,10.2789,10.2789,10.2789,10.2789,10.2789,10.2789,10.2789,10.2789,10.2789,10.2789,10.2789,10.2789,10.2789,10.2789,10.2789,10.2789,10.2789,10.2796,10.2803,10.2894,10.2884,10.289,10.289,10.289,10.289,10.289,10.289,10.289,10.289,10.289,10.289,10.289,10.289,10.289,6.4657,6.7193,6.9373,6.7541,6.7878,6.8423,6.7576,6.7141,6.6914,6.6914,6.6914,6.7253,6.8382,7.0246,7.2702,7.6038,7.8919,8.2337,8.6915,9.0757,9.3554,9.4828,9.5751,9.6288,0.0,9.6634,9.7403,9.8711,9.9173,9.9942,10.1212,10.1289,10.1289,10.1289,10.1289,10.1289,10.1289,10.1289,10.1289,10.1289,10.1289,10.1289,10.1289,10.1289,10.1289,10.1289,10.1289,0.0,10.1289,10.1289,10.1289,10.1289,10.1289,10.1289,10.1289,10.1289,10.1289,10.1289,10.1289,10.1289,10.1289,10.1289,10.1289,10.152,10.2289,10.2904,10.3405,10.3789,10.3597,10.3097,10.2212,10.1788,10.15,10.1703,10.1918,10.2183,10.2413,10.2582,10.2694,10.2781,10.2789,10.2789,10.2789,10.2789,10.2789,10.2789,10.3101,10.3296,10.2906,10.3101,10.3218,10.2789,10.2789,10.2789,10.2789,10.2789,10.2789,10.2906,10.29,10.2884,10.289,10.289,10.289,10.289,10.289,10.289,10.289,10.289,10.289,10.289,10.289,10.289,6.4206,6.6919,6.929,6.8138,6.8518,6.9039,6.8474,6.7578,6.6875,6.6875,6.7187,6.7799,6.8999,7.1772,7.4678,7.7169,8.098,8.5221,8.9767,9.2438,9.417,9.4905,9.5751,0.0,9.6288,9.6904,9.7712,9.8712,9.9481,10.0289,10.1212,10.1289,10.1289,10.1289,10.1289,10.1289,10.1289,10.1289,10.1289,10.1289,10.1289,10.1289,10.1289,10.1289,10.1289,10.1289,0.0,0.0,10.1289,10.1289,10.1289,10.1289,10.1289,10.1289,10.1289,10.1289,10.1289,10.1289,10.152,10.152,10.152,10.152,10.152,10.1597,10.2212,10.2404,10.2404,10.2404,10.252,10.2404,10.152,10.1289,10.1404,10.1572,10.1696,10.1902,10.2303,10.2484,10.2595,10.2811,10.2789,10.2789,10.2789,10.2789,10.2789,10.2789,10.3491,10.3804,10.3101,10.3608,10.3804,10.3101,10.2906,10.2789,10.2789,10.2789,10.2789,10.2789,10.2789,10.2783,10.289,10.289,10.289,10.289,10.289,10.289,10.289,10.289,10.289,10.289,10.289,10.289,6.5351,6.8039,6.985,6.8156,6.7952,6.8292,6.882,6.7767,6.668,6.6875,6.8468,7.0938,7.4515,7.6691,7.9201,8.3093,8.612,8.8925,9.1707,9.3672,9.4828,9.4982,0.0,9.6288,9.6288,9.6403,9.7134,9.8673,9.8904,9.9673,10.1212,10.1289,10.1289,10.1289,10.1289,10.1289,10.1289,10.1289,10.1289,10.1289,10.1289,10.1289,10.1289,10.1289,10.1289,10.1289,0.0,10.1289,10.1289,10.1289,10.1289,10.1289,10.1289,10.1289,10.1289,10.1289,10.1289,10.1404,10.2097,10.2404,10.2404,10.2404,10.2404,10.2289,10.1712,10.152,10.152,10.152,10.202,10.2404,10.152,10.1289,10.1289,10.1404,10.1696,10.2109,10.2101,10.2499,10.2811,10.2789,10.2789,10.2789,10.2789,10.2789,10.2789,10.2789,10.3491,10.4116,10.3882,10.3999,10.3999,10.3882,10.3218,10.2789,10.2789,10.2789,10.2789,10.2789,10.2789,10.2783,10.289,10.289,10.289,10.289,10.289,10.289,10.289,10.289,10.289,10.289,10.289,10.289,6.3468,6.5695,6.8176,7.0499,7.2481,7.4006,7.4364,7.4601,7.3817,7.0692,7.2006,7.4367,7.6609,7.876,8.2419,8.9321,9.141,9.291,9.4903,9.548,9.5674,0.0,0.0,9.6288,9.6288,9.7134,9.798,9.875,9.9635,10.0519,10.1289,10.1289,10.1289,10.1289,10.1289,10.1289,10.1289,10.1289,10.1289,10.1289,10.1289,10.1289,10.1289,10.1289,10.1289,10.1289,0.0,10.1289,10.1289,10.1289,10.1289,10.1289,10.1289,10.1289,10.1289,10.1289,10.1597,10.2097,10.252,10.2597,10.2597,10.2597,10.2289,10.1789,10.1404,10.1289,10.1289,10.1289,10.1597,10.1789,10.1404,10.1289,10.1289,10.1289,10.1473,10.1696,10.1913,10.2222,10.2484,10.2608,10.2714,10.2789,10.2789,10.2789,10.2789,10.2789,10.3491,10.4116,10.4116,10.4506,10.4584,10.4194,10.3687,10.3296,10.2789,10.2789,10.2789,10.2789,10.2789,10.2803,10.291,10.2888,10.289,10.289,10.289,10.289,10.289,10.289,10.289,10.289,10.289,10.289,6.2391,6.4441,6.7671,7.2851,7.5526,7.7447,7.9653,8.0248,7.9276,7.5512,7.6741,7.8776,7.9692,8.1901,8.6047,9.348,9.4714,9.5445,9.7519,9.7096,9.6519,9.6326,9.6288,9.6288,9.6288,9.7634,9.8596,9.8788,10.0212,10.1096,10.1289,10.1289,10.1289,10.1289,10.1289,10.1289,10.1289,10.1289,10.1289,10.1289,10.1289,10.1289,10.1289,10.1289,10.1289,10.1289,10.1289,10.1289,10.1289,10.1289,10.1289,10.1289,10.152,10.1712,10.1904,10.1904,10.2212,10.2712,10.302,10.2904,10.2597,10.2789,10.2289,10.1597,10.1404,10.1289,10.1289,10.1289,10.1289,10.1289,10.1289,10.1289,10.1289,10.1289,10.1327,10.1398,10.171,10.1891,10.2201,10.24,10.249,10.2605,10.2605,10.2704,10.2704,10.2605,10.3505,10.4108,10.4012,10.4802,10.5092,10.4194,10.4116,10.3687,10.2906,10.2789,10.2789,10.2789,10.2789,10.2789,10.2906,10.2917,10.289,10.289,10.289,10.289,10.289,10.289,10.289,10.289,10.289,10.289,6.4765,6.7333,7.0598,7.406,7.2723,7.28,8.1491,7.988,7.7421,8.0278,8.2777,8.4993,8.6597,8.882,9.122,9.3445,9.3793,9.4945,9.825,0.0,9.7171,9.6403,9.6288,9.6288,9.6288,9.7096,9.7942,9.875,9.9673,10.0481,10.1289,10.1289,10.1289,10.1289,10.1289,10.1289,10.1289,10.1289,10.1289,10.1289,10.1289,10.1289,10.1289,10.1289,10.1289,10.1289,10.1289,10.1289,10.1289,10.1289,10.1289,10.1404,10.2212,10.2981,10.3712,10.3712,10.3212,10.2789,10.4405,10.3905,10.2712,10.3482,10.3212,10.2404,10.152,10.1289,10.1289,10.1289,10.1289,10.1289,10.1289,10.1289,10.1289,10.1289,10.1473,10.1703,10.1696,10.1891,10.2094,10.2078,10.2101,10.2178,10.2178,10.24,10.2413,10.2183,10.3322,10.4012,10.3815,10.4684,10.5092,10.4194,10.4116,10.3687,10.2906,10.2789,10.2789,10.2789,10.2789,10.2789,10.2906,10.29,10.2884,10.289,10.289,10.289,10.289,10.289,10.289,10.289,10.289,10.289,6.2824,6.6853,7.1571,7.4309,7.5105,7.6878,8.3094,8.5434,8.594,8.4657,8.6801,8.8936,8.9002,9.1534,9.3924,9.5122,9.5712,9.6712,9.8558,9.8519,9.7979,9.7171,9.6596,9.6288,9.6288,9.7519,9.8442,9.8788,10.0096,10.1019,10.1289,10.1289,10.1289,10.1289,10.1289,10.1289,10.1289,10.1289,10.1289,10.1289,10.1289,10.1289,10.1289,10.1289,10.1289,10.1289,10.1289,10.1289,10.1289,10.1904,10.2097,10.2212,10.3097,10.3597,10.3905,10.3905,10.3982,10.4212,10.4905,10.4405,10.3482,10.3789,10.2904,10.1789,10.202,10.2097,10.2097,10.2097,10.2097,10.202,10.1404,10.1289,10.1289,10.1289,10.1404,10.1514,10.1514,10.1671,10.1913,10.1913,10.1996,10.2094,10.2094,10.2201,10.2205,10.2117,10.2707,10.3219,10.3591,10.4712,10.5287,10.4897,10.4389,10.3687,10.2906,10.2789,10.2789,10.2789,10.2789,10.2789,10.2789,10.29,10.2884,10.289,10.289,10.289,10.289,10.289,10.289,10.289,10.289,10.289,6.2729,6.7247,7.2656,7.4827,7.7163,8.0145,8.4664,8.7622,8.9123,8.8294,9.0181,9.1756,9.087,9.2426,9.4177,9.5268,9.6402,9.752,9.8634,9.8788,9.8478,9.7633,9.6788,9.6288,9.6288,9.7827,9.8788,9.8788,10.0404,10.1289,10.1289,10.1289,10.1289,10.1289,10.1289,10.1289,10.1289,10.1289,10.1289,10.1289,10.1289,10.1289,10.1289,10.1289,10.1289,10.1289,10.1289,10.1289,10.1289,10.1904,10.252,10.3097,10.3712,10.4212,10.4713,10.4713,10.4905,10.5097,10.5405,10.4789,10.3905,10.4212,10.3097,10.1904,10.2712,10.2789,10.2597,10.2597,10.2597,10.2404,10.152,10.1289,10.1289,10.1289,10.1289,10.1289,10.1289,10.1398,10.1611,10.1611,10.1688,10.1797,10.1797,10.1918,10.1906,10.1874,10.2101,10.2594,10.31,10.4194,10.4978,10.5404,10.4584,10.3882,10.3296,10.2984,10.2789,10.2789,10.2789,10.2789,10.2789,10.2888,10.2917,10.289,10.289,10.289,10.289,10.289,10.289,10.289,10.289,10.289,6.5368,6.9324,7.4185,7.5823,7.8181,8.1385,8.6274,8.4908,8.4507,9.1098,9.3139,9.3484,9.264,9.1792,9.1748,9.3474,9.517,9.6866,9.8596,9.8788,9.848,9.7634,9.6788,9.6288,9.6288,9.7827,9.8788,9.8788,10.0404,10.1289,10.1289,10.1289,10.1289,10.1289,10.1289,10.1289,10.1289,10.1289,10.1289,10.1289,10.1289,10.1289,10.1289,10.1289,10.1289,10.1289,10.1289,10.1289,10.1289,10.1289,10.2404,10.3905,10.3905,10.4905,10.6405,10.6405,10.5905,10.5213,10.6097,10.529,10.3982,10.4789,10.3982,10.2789,10.3597,10.3289,10.2597,10.2597,10.2597,10.2404,10.152,10.1289,10.1289,10.1289,10.1289,10.1289,10.1289,10.1289,10.1289,10.1289,10.1289,10.1289,10.1289,10.1504,10.1606,10.1289,10.1796,10.2094,10.2094,10.3004,10.4102,10.5318,10.4584,10.4116,10.4116,10.3296,10.2789,10.2789,10.2789,10.2789,10.2789,10.2906,10.29,10.289,10.289,10.289,10.289,10.289,10.289,10.289,10.289,10.289,6.5896,7.2723,7.9636,7.816,8.2447,8.7038,8.7358,8.6653,8.6878,9.0024,9.2792,9.4176,9.2753,9.3251,0.0,9.5326,9.644,9.775,9.9481,9.9211,9.8711,9.8441,9.7134,9.6288,9.6288,9.7827,9.8788,9.8788,10.0404,10.1289,10.1289,10.1289,10.1289,10.1289,10.1289,10.1289,10.1289,10.1289,10.1289,10.1289,10.1289,10.1289,10.1289,10.1289,10.1289,10.1289,10.1289,10.1289,10.1404,10.2597,10.4097,10.5713,10.5713,10.602,10.6405,10.6405,10.6213,10.6097,10.629,10.5713,10.4789,10.4982,10.4405,10.3712,10.4482,10.4597,10.4405,10.4405,10.3982,10.3289,10.2404,10.1789,10.1289,10.1289,10.1289,10.1289,10.1289,10.1289,10.1289,10.1289,10.1289,10.1289,10.1289,10.1366,10.1402,10.1289,10.1606,10.2123,10.2886,10.3393,10.4112,10.5013,10.5095,10.4819,10.4194,10.3882,10.3491,10.2789,10.2789,10.2789,10.2789,10.2789,10.2888,10.2882,10.2889,10.289,10.289,10.289,10.289,10.289,10.289,10.289,7.0498,7.7394,8.4357,8.3702,8.6748,8.9633,8.8632,8.8671,8.9321,9.0763,9.3162,9.4788,9.4097,9.4828,0.0,9.6634,9.775,9.8904,9.9942,9.9365,9.8788,9.8788,9.7325,9.6288,9.6288,9.7827,9.8788,9.8788,10.0404,10.1289,10.1289,10.1289,10.1289,10.1289,10.1289,10.1289,10.1289,10.1289,10.1289,10.1289,10.1289,10.1289,10.1289,10.1289,10.1289,10.1289,10.1712,10.1789,10.1904,10.3289,10.4713,10.5905,10.5905,10.6097,10.6405,10.6405,10.6405,10.6405,10.6405,10.6097,10.5597,10.5597,10.5097,10.4482,10.5405,10.5405,10.5097,10.5097,10.4789,10.4097,10.2904,10.2212,10.1712,10.1404,10.1289,10.1289,10.1289,10.1289,10.1289,10.1289,10.1289,10.1289,10.1289,10.1289,10.1289,10.1289,10.1504,10.1873,10.2616,10.3296,10.3887,10.4393,10.4684,10.4702,10.4116,10.3804,10.3413,10.2789,10.2789,10.2789,10.2789,10.2789,10.2796,10.29,10.2886,10.289,10.289,10.289,10.289,10.289,10.289,10.289,7.6746,8.2131,8.7979,9.0479,9.0671,9.0287,9.0364,9.0979,9.1698,9.2383,9.3901,9.5286,9.5942,9.6249,9.6673,9.7518,9.9019,10.0096,10.0211,9.9481,9.8904,9.8904,9.7442,9.6403,9.6403,9.7865,9.8788,9.8788,10.0404,10.1289,10.1289,10.1289,10.1289,10.1289,10.1289,10.1289,10.1289,10.1289,10.1289,10.1289,10.1289,10.1289,10.1289,10.1289,10.1289,10.1289,10.2212,10.2597,10.2789,10.3712,10.4482,10.5213,10.5213,10.5713,10.6405,10.6405,10.6405,10.6405,10.6405,10.6405,10.6405,10.6405,10.5905,10.5405,10.6213,10.579,10.5213,10.5213,10.5174,10.4713,10.3097,10.2712,10.2404,10.152,10.1289,10.1289,10.1289,10.1289,10.1289,10.1289,10.1289,10.1289,10.1289,10.1289,10.1289,10.1289,10.1508,10.1703,10.1703,10.27,10.362,10.3715,10.3998,10.4186,10.4116,10.3413,10.2984,10.2789,10.2789,10.2789,10.2789,10.2789,10.2789,10.2906,10.2882,10.289,10.289,10.289,10.289,10.289,10.289,10.289,7.4476,8.1208,8.7863,8.971,9.1556,9.3056,9.3749,9.4057,9.3477,9.1039,9.3474,9.5634,9.448,9.5865,9.7518,9.8365,9.9442,10.0288,10.1019,10.0288,9.9788,9.9827,9.8288,9.725,9.725,9.8173,9.8788,9.8788,10.0404,10.1289,10.1289,10.1289,10.1289,10.1289,10.1289,10.1289,10.1289,10.1289,10.1289,0.0,10.1289,10.1289,10.1289,10.1289,10.1289,10.1289,10.2212,10.2981,10.3712,10.4482,10.529,10.6097,10.6097,10.6213,10.6405,10.6405,10.6405,10.6405,10.6405,10.6405,10.6405,10.6405,10.629,10.6213,10.629,10.629,10.6097,10.6097,10.5597,10.4905,10.3905,10.3097,10.2404,10.152,10.1289,10.1289,10.1289,10.1289,10.1289,10.1289,10.1289,10.1289,10.1289,10.1289,10.1289,10.1289,10.1327,10.1404,10.1404,10.1819,10.2488,10.3406,10.4304,10.461,10.4108,10.4584,10.4311,10.2906,10.2789,10.2789,10.2789,10.2789,10.2789,10.2906,10.2905,10.2886,10.289,10.289,10.289,10.289,10.289,10.289,7.6976,8.3093,8.8709,9.1633,9.3018,9.3941,9.4788,9.5326,9.5134,9.3326,9.4749,9.6134,9.5595,9.694,9.8403,9.9249,10.0096,10.0788,10.1212,10.0596,10.0096,10.0135,9.8557,9.7519,9.7519,9.8288,9.8788,9.8788,10.0404,10.1289,10.1289,10.1289,10.1289,10.1289,10.1289,10.152,10.1904,10.1904,10.2097,10.252,10.252,10.2289,10.1904,10.152,10.152,10.202,10.2789,10.3712,10.4482,10.5405,10.602,10.6405,10.6405,10.6405,10.6405,10.6405,10.6405,10.6405,10.6405,10.6405,10.6405,10.6405,10.6405,10.6405,10.6405,10.6405,10.6405,10.6405,10.6097,10.5482,10.4713,10.4097,10.3597,10.2712,10.1904,10.1289,10.1289,10.1289,10.1289,10.1289,10.1289,10.1289,10.1289,10.1289,10.1289,10.1289,10.1289,10.1289,10.1289,10.1504,10.201,10.2691,10.3393,10.3712,10.3483,10.3882,10.3804,10.2906,10.2789,10.2789,10.2789,10.2789,10.2789,10.2906,10.29,10.2884,10.289,10.289,10.289,10.289,10.289,10.289,7.84,8.4093,8.9363,9.4057,9.4557,9.4134,9.5018,9.5788,9.6288,9.6288,9.6403,9.6711,9.7402,9.8326,9.9248,9.998,10.0789,10.1289,10.1289,10.0673,10.0288,10.0288,9.8942,9.7942,9.7942,9.8596,9.9019,9.9019,10.0404,10.1289,10.1289,10.1289,10.1289,10.1289,10.1289,10.1712,10.2597,10.2597,10.302,10.3905,10.3905,10.3482,10.2789,10.2097,10.2097,10.2712,10.3712,10.4482,10.5213,10.602,10.6405,10.6405,10.6405,10.6405,10.6405,10.6405,10.6405,10.6405,10.6405,10.6405,10.6405,10.6405,10.6405,10.6405,10.6405,10.6405,10.6405,10.6405,10.6405,10.6213,10.529,10.5097,10.4905,10.4097,10.2789,10.1712,10.1597,10.152,10.152,10.1289,10.1289,10.1289,10.1289,10.1289,10.1289,10.1289,10.1289,10.1289,10.1289,10.1508,10.1796,10.2109,10.2382,10.2787,10.3015,10.2984,10.2984,10.2984,10.2906,10.2789,10.2789,10.2789,10.2789,10.2906,10.29,10.2884,10.289,10.289,10.289,10.289,10.289,10.289,7.0129,7.8746,8.8017,9.4518,9.548,9.5057,9.5942,9.6211,9.6288,9.6288,9.6865,9.7365,9.748,9.8826,9.9942,10.0096,10.0827,10.1289,10.1289,10.1212,10.1096,10.1096,10.0289,9.975,9.975,9.9865,9.9904,9.9904,10.0789,10.1289,10.1289,10.1289,10.1289,10.1289,10.1289,10.1712,10.2597,10.2597,10.302,10.3905,10.3905,10.3789,10.3712,10.3597,10.3212,10.2712,10.4289,10.4982,10.5213,10.602,10.6405,10.6405,10.6405,10.6405,10.6405,10.6405,10.6405,10.6405,10.6405,10.6405,10.6405,10.6405,10.6405,10.6405,10.6405,10.6405,10.6405,10.6405,10.6405,10.6213,10.529,10.5097,10.4905,10.4097,10.3712,10.3289,10.2597,10.2404,10.2212,10.1404,10.1289,10.1289,10.1289,10.1289,10.1289,10.1289,10.1289,10.1289,10.1289,10.1289,10.15,10.2007,10.2777,10.351,10.3904,10.3882,10.3882,10.3882,10.3218,10.2789,10.2789,10.2789,10.2789,10.2906,10.29,10.2884,10.289,10.289,10.289,10.289,10.289,10.289,7.1014,7.99,8.8017,9.2941,9.4595,9.5211,9.6095,9.6288,9.6442,9.6865,9.7634,9.825,9.825,9.925,10.0211,10.0673,10.1096,10.1289,10.1289,10.1289,10.1289,10.1289,10.0596,10.0096,10.0096,10.0096,10.0096,10.0096,10.0789,10.1289,10.1289,10.1289,10.152,10.202,10.1597,10.2212,10.3982,10.3597,10.3982,10.529,10.4789,10.4597,10.4597,10.4597,10.4405,10.3982,10.4789,10.5405,10.5905,10.6213,10.6405,10.6405,10.6405,10.6405,10.6405,10.6405,10.6405,10.6405,10.6405,10.6405,10.6405,10.6405,10.6405,10.6405,10.6405,10.6405,10.6405,10.6405,10.6405,10.629,10.5905,10.579,10.5713,10.5405,10.4905,10.4289,10.3482,10.2904,10.2289,10.152,10.1289,10.1289,10.1289,10.1289,10.1289,10.1289,10.1289,10.1289,10.1289,10.1289,10.1508,10.2007,10.2404,10.2907,10.3279,10.3804,10.3882,10.3413,10.3491,10.3296,10.2789,10.2789,10.2789,10.2906,10.29,10.2884,10.289,10.289,10.289,10.289,10.289,10.289,7.1706,7.8861,8.4863,9.0441,9.2787,9.421,9.6172,9.6442,9.6519,9.7326,9.8173,9.8865,9.9096,9.9827,10.0635,10.1212,10.1289,10.1289,10.1289,10.1289,10.1289,10.1289,10.0789,10.0404,10.0404,10.0404,10.0404,10.0404,10.1019,10.1289,10.1289,10.1289,10.1712,10.2597,10.202,10.2712,10.5097,10.4713,10.5213,10.6405,10.5713,10.5405,10.5405,10.5405,10.5405,10.5405,10.5405,10.579,10.6405,10.6405,10.6405,10.6405,10.6405,10.6405,10.6405,10.6405,10.6405,10.6405,10.6405,10.6405,10.6405,10.6405,10.6405,10.6405,10.6405,10.6405,10.6405,10.6405,10.6405,10.6405,10.6405,10.6405,10.6405,10.6405,10.5905,10.5097,10.3789,10.2904,10.2097,10.1404,10.1289,10.1289,10.1289,10.1289,10.1289,10.1289,10.1289,10.1289,10.1289,10.1404,10.1611,10.2007,10.2201,10.2495,10.3084,10.3491,10.3687,10.3491,10.3687,10.3608,10.3101,10.2906,10.2789,10.2906,10.29,10.2884,10.289,10.289,10.289,10.289,10.289,10.289,6.8129,7.1475,7.5745,8.7171,9.0094,9.1441,9.6326,9.6865,9.6519,9.7326,9.8173,9.9058,9.9865,10.0712,10.1289,10.1289,10.1289,10.1289,10.1289,10.1289,10.1289,10.1289,10.1289,10.1212,10.1212,10.1212,10.1212,10.1212,10.1289,10.1289,10.1289,10.1289,10.1712,10.2597,10.2597,10.3405,10.5097,10.5905,10.629,10.6405,10.6405,10.629,10.629,10.629,10.629,10.629,10.629,10.6405,10.6405,10.6405,10.6405,10.6405,10.6405,10.6405,10.6405,10.6405,10.6405,10.6405,10.6405,10.6405,10.6405,10.6405,10.6405,10.6405,10.6405,10.6405,10.6405,10.6405,10.6405,10.6405,10.6405,10.6405,10.6405,10.6405,10.6405,10.5713,10.3212,10.202,10.1404,10.1289,10.1289,10.1289,10.1289,10.1289,10.1289,10.1289,10.1289,10.1289,10.1289,10.1504,10.1817,10.2109,10.2285,10.2893,10.3913,10.3296,10.3608,10.5209,10.3804,10.3218,10.3999,10.3218,10.2789,10.2789,10.29,10.2884,10.289,10.289,10.289,10.289,10.289,10.289,6.5166,6.9244,7.3745,8.0208,8.467,8.8094,9.0479,9.2903,9.5018,9.6442,9.7827,9.9211,10.0596,10.1096,10.1289,10.1289,10.1289,10.1289,10.1289,10.1289,10.1289,10.1289,10.1289,10.1289,10.1289,10.1289,10.1289,10.1289,10.1289,10.152,10.2097,10.2097,10.2789,10.4212,10.3712,10.3982,10.5097,10.602,10.6405,10.6405,10.6405,10.6405,10.6405,10.6405,10.6405,10.6405,10.6405,10.6405,10.6405,10.6405,10.6405,10.6405,10.6405,10.6405,10.6405,10.6405,10.6405,10.6405,10.6405,10.6405,10.6405,10.6405,10.6405,10.6405,10.6405,10.6405,10.6405,10.6405,10.6405,10.6405,10.6405,10.6405,10.629,10.5713,10.5597,10.5213,10.3712,10.2712,10.2097,10.2097,10.1712,10.1289,10.1289,10.1289,10.1289,10.1289,10.1289,10.1289,10.1289,10.1504,10.1778,10.2109,10.2303,10.2698,10.321,10.3491,10.3687,10.3687,10.3687,10.3491,10.3296,10.2984,10.2789,10.2789,10.2881,10.291,10.289,10.289,10.289,10.289,10.289,10.289,6.2204,6.5974,7.0437,7.5592,7.94,8.2978,8.7286,9.021,9.2826,9.5711,9.7634,9.9327,10.1019,10.1289,10.1289,10.1289,10.1289,10.1289,10.1289,10.1289,10.1289,10.1289,10.1289,10.1289,10.1289,10.1289,10.1404,10.1712,10.1712,0.0,10.2981,10.302,10.3712,10.5097,10.4905,10.4982,10.5482,10.6097,10.6405,10.6405,10.6405,10.6405,10.6405,10.6405,10.6405,10.6405,10.6405,10.6405,10.6405,10.6405,10.6405,10.6405,10.6405,10.6405,10.6405,10.6405,10.6405,10.6405,10.6405,10.6405,10.6405,10.6405,10.6405,10.6405,10.6405,10.6405,10.6405,10.6405,10.6405,10.6405,10.6405,10.6405,10.629,10.5713,10.5482,10.5405,10.4905,10.3597,10.2597,10.2597,10.1904,10.1289,10.1289,10.1289,10.1289,10.1289,10.1289,10.1289,10.1289,10.1567,10.1891,10.2109,10.2396,10.271,10.2781,10.3296,10.3491,10.3296,10.3491,10.3491,10.3218,10.2984,10.2789,10.2789,10.2906,10.2894,10.2888,10.289,10.289,10.289,10.289,10.2695,0.0,0.0,0.0,7.3553,7.4514,7.6245,8.7055,8.8902,8.9863,9.5095,9.7442,9.9096,10.0904,10.1289,10.1289,10.1289,10.1289,10.1289,10.1289,10.1289,10.1289,10.1289,10.1289,10.1289,10.1289,10.1289,10.1712,10.252,10.2597,10.2981,10.3905,10.3905,10.4289,10.5097,10.602,10.6405,10.6405,10.6405,10.6405,10.6405,10.6405,10.6405,10.6405,10.6405,10.6405,10.6405,10.6405,10.6405,10.6405,10.6405,10.6405,10.6405,10.6405,10.6405,10.6405,10.6405,10.6405,10.6405,10.6405,10.6405,10.6405,10.6405,10.6405,10.6405,10.6405,10.6405,10.6405,10.6405,10.6405,10.6405,10.6405,10.6405,10.6405,10.6405,10.6405,10.6405,10.6405,10.4405,10.2712,10.2712,10.202,10.1289,10.1289,10.1289,10.1289,10.1289,10.1289,10.1289,10.1289,10.1826,10.2094,10.2094,10.249,10.2789,10.2789,10.2789,10.3218,10.3999,10.3296,10.3218,10.3999,10.3218,10.2789,10.2789,10.2906,10.2888,10.2914,10.2888,10.289,10.289,10.289,10.2383,5.8588,0.0,0.0,0.0,0.0,0.0,7.8477,8.0592,8.3632,9.1864,9.2941,9.4018,9.9442,10.0404,10.0596,10.1212,10.1289,10.1289,10.1289,10.1289,10.1289,10.1289,10.1289,10.1289,10.1289,10.1289,10.1404,0.0,10.1712,10.2289,10.3789,10.502,10.579,10.602,10.629,10.6405,10.6405,10.6405,10.6405,10.6405,10.6405,10.6405,10.6405,10.6405,10.6405,10.6405,10.6405,10.6405,10.6405,10.6405,10.6405,10.6405,10.6405,10.6405,10.6405,10.6405,10.6405,10.6405,10.6405,10.6405,10.6405,10.6405,10.6405,10.6405,10.6405,10.6405,10.6405,10.6405,10.6405,10.6405,10.6405,10.6405,10.6405,10.6405,10.6405,10.6405,10.6405,10.5405,10.4405,10.4405,10.3212,10.2212,10.2212,10.1712,10.1289,10.1289,10.1289,10.1289,10.1289,10.1826,10.2094,10.2094,10.249,10.2789,10.2789,10.2789,10.2906,10.3101,10.2906,10.2906,10.3101,10.2906,10.2789,10.2789,10.2906,10.2888,10.2914,10.2888,10.289,10.289,10.289,10.2812,5.9242,6.0704,6.2551,6.4436,0.0,0.0,7.5592,7.7784,8.117,9.0556,9.1979,9.3018,9.8057,9.875,9.8904,10.0096,10.0288,10.048,10.1212,10.1289,10.1289,10.1289,10.1289,10.1289,10.1289,10.1289,10.152,10.1789,10.1789,10.2404,10.3789,10.5097,10.5905,10.5905,10.6213,10.6405,10.6405,10.6405,10.6405,10.6405,10.6405,10.6405,10.6405,10.6405,10.6405,10.6405,10.6405,10.6405,10.6405,10.6405,10.6405,10.6405,10.6405,10.6405,10.6405,10.6405,10.6405,10.6405,10.6405,10.6405,10.6405,10.6405,10.6405,10.6405,10.6405,10.6405,10.6405,10.6405,10.6405,10.6405,10.6405,10.6405,10.6405,10.6405,10.6405,10.6405,10.6405,10.602,10.5405,10.4713,10.3482,10.252,10.2097,10.1597,10.1289,10.1289,10.1289,10.1289,10.1289,10.1826,10.2094,10.2094,10.249,10.2789,10.2789,10.2789,10.2789,10.2789,10.2789,10.2789,10.2789,10.2789,10.2789,10.2789,10.2906,10.2894,10.2884,10.2889,10.289,10.289,10.289,10.2695,6.0704,6.155,6.3051,6.5936,0.0,0.0,7.5592,7.7361,7.9823,8.9056,9.121,9.2364,9.5403,9.5365,9.5441,9.6982,9.7827,9.8904,10.0788,10.1019,10.1019,10.1019,10.1019,10.1096,10.1289,10.1289,10.1597,10.2404,10.252,10.2904,10.3712,10.4482,10.4982,10.5097,10.5905,10.629,10.6405,10.6405,10.6405,10.6405,10.6405,10.6405,10.6405,10.6405,10.6405,10.6405,10.6405,10.6405,10.6405,10.6405,10.6405,10.6405,10.6405,10.6405,10.6405,10.6405,10.6405,10.6405,10.6405,10.6405,10.6405,10.6405,10.6405,10.6405,10.6405,10.6405,10.6405,10.6405,10.6405,10.6405,10.6405,10.6405,10.6405,10.6405,10.6405,10.6405,10.6405,10.6405,10.5905,10.4289,10.3405,10.2597,10.1904,10.1597,10.1404,10.1404,10.1404,10.1289,10.1289,10.1826,10.2094,10.2094,10.249,10.2789,10.2789,10.2789,10.2789,10.2789,10.2789,10.2789,10.2789,10.2789,10.2789,10.2789,10.2913,10.2905,10.289,10.289,10.289,10.289,10.289,10.25,6.1512,6.2435,0.0,0.0,0.0,0.0,0.0,7.0321,7.1591,7.9592,7.9208,7.9246,8.5209,8.617,8.6401,8.7445,9.1604,9.5751,9.8865,9.9288,9.9288,9.9327,9.9288,9.9827,10.1212,10.1289,10.1404,10.152,10.2212,10.2712,10.2789,10.3712,10.4405,10.5097,10.529,10.5713,10.6405,10.6405,10.6405,10.6405,10.6405,10.6405,10.6405,10.6405,10.6405,10.6405,10.6405,10.6405,10.6405,10.6405,10.6405,10.6405,10.6405,10.6405,10.6405,10.6405,10.6405,10.6405,10.6405,10.6405,10.6405,10.6405,10.6405,10.6405,10.6405,10.6405,10.6405,10.6405,10.6405,10.6405,10.6405,10.6405,10.6405,10.6405,10.6405,10.6405,10.6405,10.6405,10.6097,10.5097,10.4713,10.4597,10.4405,10.3212,10.2289,10.2289,10.1712,10.1289,10.1289,10.1826,10.2094,10.2094,10.249,10.2789,10.2789,10.2789,10.2789,10.2789,10.2789,10.2789,10.2789,10.2789,10.2789,10.2789,10.2894,10.2882,10.289,10.289,10.289,10.289,10.289,10.2812,0.0,0.0,0.0,6.4974,0.0,0.0,0.0,0.0,7.0783,7.7169,7.6823,7.6707,8.09,8.1362,8.1747,8.3901,8.7791,9.0872,9.1721,9.6596,10.0015,9.9981,9.9981,10.0404,10.1212,10.1289,10.1289,10.1289,10.1712,10.202,10.202,10.2789,10.3405,10.3789,10.4713,10.529,10.5713,10.6213,10.6405,10.6405,10.6405,10.6405,10.6405,10.6405,10.6405,10.6405,10.6405,10.6405,10.6405,10.6405,10.6405,10.6405,10.6405,10.6405,10.6405,10.6405,10.6405,10.6405,10.6405,10.6405,10.6405,10.6405,10.6405,10.6405,10.6405,10.6405,10.6405,10.6405,10.6405,10.6405,10.6405,10.6405,10.6405,10.6405,10.6405,10.6405,10.6405,10.6405,10.629,10.579,10.5713,10.5482,10.4597,10.3405,10.2597,10.2597,10.1904,10.1327,10.1511,10.1688,10.1996,10.2285,10.2514,10.2694,10.2789,10.2789,10.2789,10.2789,10.2789,10.2789,10.2789,10.2789,10.2789,10.2789,10.29,10.2884,10.289,10.289,10.289,10.289,10.289,10.2695,0.0,0.0,0.0,0.0,0.0,6.759,0.0,0.0,0.0,0.0,7.5553,7.5553,7.7092,7.6784,7.7169,7.9746,8.3033,8.4593,8.2947,9.1441,9.7928,9.8095,9.9135,9.9865,10.0096,10.048,10.1019,10.1289,10.1019,10.1019,10.1289,10.202,10.2404,10.2597,10.4097,10.4905,10.5097,10.602,10.6405,10.6405,10.6405,10.6405,10.6405,10.6405,10.6405,10.6405,10.6405,10.6405,10.6405,10.6405,10.6405,10.6405,10.6405,10.6405,10.6405,10.6405,10.6405,10.6405,10.6405,10.6405,10.6405,10.6405,10.6405,10.6405,10.6405,10.6405,10.6405,10.6405,10.6405,10.6405,10.6405,10.6405,10.6405,10.6405,10.6405,10.6405,10.6405,10.6405,10.6405,10.6405,10.6405,10.602,10.4597,10.3712,10.302,10.2904,10.2097,10.1596,10.1606,10.1703,10.1902,10.24,10.2507,10.2582,10.2781,10.2789,10.2789,10.2789,10.2789,10.2789,10.2789,10.2789,10.2789,10.2906,10.29,10.2884,10.289,10.289,10.289,10.289,10.2695,10.2304,0.0,0.0,0.0,0.0,6.8744,0.0,0.0,0.0,0.0,6.7359,0.0,6.7475,6.8359,0.0,0.0,0.0,7.3174,7.6717,7.5033,8.1041,8.5907,8.6662,9.1413,9.4867,9.5675,9.775,9.9712,10.1212,9.9904,9.9712,10.1212,10.1404,10.1789,10.2597,10.3482,10.4405,10.5097,10.602,10.6405,10.6405,10.6405,10.6405,10.6405,10.6405,10.6405,10.6405,10.6405,10.6405,10.6405,10.6405,10.6405,10.6405,10.6405,10.6405,10.6405,10.6405,10.6405,10.6405,10.6405,10.6405,10.6405,10.6405,10.6405,10.6405,10.6405,10.6405,10.6405,10.6405,10.6405,10.6405,10.6405,10.6405,10.6405,10.6405,10.6405,10.6405,10.6405,10.6405,10.6405,10.6405,10.6405,10.629,10.6097,10.5405,10.4597,10.3905,10.2981,10.2174,10.1366,10.1616,10.1807,10.2117,10.2381,10.2582,10.2781,10.2789,10.2789,10.2789,10.2789,10.2789,10.2789,10.2789,10.2789,10.2906,10.29,10.2884,10.289,10.289,10.289,10.289,10.2109,10.1719,0.0,0.0,0.0,0.0,0.0,0.0,6.759,0.0,6.632,0.0,0.0,0.0,0.0,0.0,0.0,0.0,7.0964,0.0,7.0821,7.6388,8.1677,8.4541,0.0,0.0,9.3868,0.0,0.0,0.0,9.7365,9.7019,9.9712,10.0789,10.152,10.1789,10.2712,10.3597,10.4405,10.5213,10.5905,10.6405,10.6405,10.6405,10.6405,10.6405,10.6405,10.6405,10.6405,10.6405,10.6405,10.6405,10.6405,10.6405,10.6405,10.6405,10.6405,10.6405,10.6405,10.6405,10.6405,10.6405,10.6405,10.6405,10.6405,10.6405,10.6405,10.6405,10.6405,10.6405,10.6405,10.6405,10.6405,10.6405,10.6405,10.6405,10.6405,10.6405,10.6405,10.6405,10.6405,10.6405,10.6405,10.6405,10.6405,10.5713,10.4982,10.4597,10.3482,10.2482,10.228,10.1817,10.1703,10.2285,10.2304,10.2413,10.282,10.2789,10.2789,10.2789,10.2789,10.2789,10.2789,10.2789,10.2789,10.2906,10.29,10.2884,10.289,10.289,10.289,10.289,10.25,10.2109,7.3937,0.0,0.0,0.0,0.0,0.0,0.0,0.0,0.0,0.0,0.0,0.0,0.0,0.0,0.0,0.0,0.0,6.9667,0.0,7.1414,7.6101,7.9922,0.0,0.0,0.0,0.0,0.0,0.0,0.0,9.398,9.8557,9.9942,10.0789,10.1289,10.2097,10.2981,10.3905,10.4713,10.5482,10.6405,10.6405,10.6405,10.6405,10.6405,10.6405,10.6405,10.6405,10.6405,10.6405,10.6405,10.6405,10.6405,10.6405,10.6405,10.6405,10.6405,10.6405,10.6405,10.6405,10.6405,10.6405,10.6405,10.6405,10.6405,10.6405,10.6405,10.6405,10.6405,10.6405,10.6405,10.6405,10.6405,10.6405,10.6405,10.6405,10.6405,10.6405,10.6405,10.6405,10.6405,10.6405,10.6405,10.6405,10.5905,10.529,10.4789,10.3712,10.2905,10.2615,10.1824,10.1611,10.2304,10.2205,10.2285,10.2811,10.2789,10.2789,10.2789,10.2789,10.2789,10.2789,10.2789,10.2789,10.2906,10.29,10.2884,10.289,10.289,10.2812,10.25,10.25,10.2109,0.0,0.0,0.0,7.6284,0.0,0.0,0.0,0.0,6.809,0.0,0.0,0.0,0.0,0.0,0.0,0.0,0.0,0.0,0.0,0.0,0.0,0.0,0.0,0.0,0.0,0.0,0.0,0.0,0.0,0.0,9.8404,9.8865,9.9635,10.1212,10.2097,10.2981,10.3905,10.4713,10.5482,10.6405,10.6405,10.6405,10.6405,10.6405,10.6405,10.6405,10.6405,10.6405,10.6405,10.6405,10.6405,10.6405,10.6405,10.6405,10.6405,10.6405,10.6405,10.6405,10.6405,10.6405,10.6405,10.6405,10.6405,10.6405,10.6405,10.6405,10.6405,10.6405,10.6405,10.6405,10.6405,10.6405,10.6405,10.6405,10.6405,10.6405,10.6405,10.6405,10.6405,10.6405,10.6405,10.6405,10.6405,10.6405,10.579,10.4212,10.3905,10.3289,10.1597,10.1289,10.1508,10.2085,10.2094,10.2285,10.2811,10.2789,10.2789,10.2789,10.2789,10.2789,10.2789,10.2789,10.2789,10.2906,10.29,10.2884,10.289,10.289,10.25,10.1601,10.1601,10.1211,0.0,0.0,8.594,8.2016,0.0,0.0,0.0,0.0,0.0,0.0,0.0,0.0,0.0,0.0,0.0,0.0,0.0,0.0,0.0,0.0,0.0,0.0,0.0,0.0,0.0,0.0,0.0,0.0,0.0,0.0,0.0,9.8211,9.9558,10.1212,10.1597,10.2212,10.302,10.3905,10.4713,10.5482,10.6097,10.6405,10.6405,10.6405,10.6405,10.6405,10.6405,10.6405,10.6405,10.6405,10.6405,10.6405,10.6405,10.6405,10.6405,10.6405,10.6405,10.6405,10.6405,10.6405,10.6405,10.6405,10.6405,10.6405,10.6405,10.6405,10.6405,10.6405,10.6405,10.6405,10.6405,10.6405,10.629,10.5713,10.602,10.6097,10.4982,10.5213,10.5405,10.4789,10.4713,10.4905,10.5405,10.5482,10.5482,10.5597,10.5097,10.4289,10.3212,10.252,10.2087,10.2124,10.2094,10.2285,10.2811,10.2789,10.2789,10.2789,10.2789,10.2789,10.2789,10.2789,10.2789,10.2906,10.29,10.2884,10.289,10.2304,10.1914,10.1601,10.1015,10.0586,8.9363,9.0171,0.0,8.6671,8.4055,0.0,7.5707,0.0,0.0,0.0,0.0,0.0,0.0,0.0,0.0,0.0,0.0,0.0,0.0,6.2935,0.0,0.0,0.0,0.0,0.0,0.0,0.0,0.0,0.0,0.0,0.0,0.0,9.8942,10.1212,10.1289,10.1712,10.2597,10.3212,10.3982,10.5097,10.5713,10.6097,10.6405,10.6405,10.6405,10.6405,10.6405,10.6405,10.6405,10.6405,10.6405,10.6405,10.6405,10.6405,10.6405,10.6405,10.6405,10.6405,10.6405,10.6405,10.6405,10.6405,10.6405,10.629,10.602,10.5905,10.5905,10.5905,10.5713,10.5597,10.5905,10.5713,10.5405,10.4789,10.5097,10.5213,10.4097,10.4289,10.4482,10.3982,10.3905,10.4097,10.4597,10.4713,10.4982,10.579,10.5486,10.487,10.4021,10.3483,10.2996,10.2589,10.2521,10.2596,10.2811,10.2789,10.2789,10.2789,10.2789,10.2789,10.2789,10.2789,10.2711,10.2398,10.238,10.2293,10.1992,10.1406,10.1015,10.0703,10.0117,9.9687]},{"header":{"parameterUnit":"m.s-1","parameterCategory":1,"la1":30.6,"la2":29.2853,"lo1":-89.7004,"lo2":-87.6739,"dx":0.0162,"dy":0.0183,"nx":112,"ny":82,"refTime":"2022-11-14T06:00:00:Z","depth":0,"parameterNumber":3,"parameterNumberName":"V-component_of_WINDS"},"data":[0.0,0.0,0.0,0.0,0.0,0.0,0.0,0.0,0.0,0.0,0.0,0.0,0.0,0.0,0.0,0.0,0.0,0.0,0.0,0.0,0.0,0.0,0.0,0.0,0.0,0.0,0.0,0.0,0.0,0.0,0.0,0.0,0.0,0.0,0.0,0.0,0.0,0.0,0.0,0.0,0.0,0.0,0.0,0.0,0.0,0.0,0.0,0.0,0.0,0.0,0.0,0.0,0.0,0.0,0.0,0.0,0.0,0.0,0.0,0.0,0.0,0.0,0.0,0.0,0.0,0.0,0.0,0.0,0.0,0.0,0.0,0.0,0.0,0.0,0.0,0.0,0.0,0.0,0.0,0.0,0.0,0.0,0.0,0.0,0.0,0.0,0.0,0.0,0.0,0.0,0.0,0.0,0.0,0.0,0.0,0.0,0.0,0.0,0.0,0.0,0.0,0.0,0.0,0.0,0.0,0.0,0.0,0.0,0.0,0.0,0.0,0.0,0.0,0.0,0.0,0.0,0.0,0.0,0.0,0.0,0.0,0.0,0.0,0.0,0.0,0.0,0.0,0.0,0.0,0.0,0.0,0.0,0.0,0.0,0.0,0.0,0.0,0.0,0.0,0.0,0.0,0.0,0.0,0.0,0.0,0.0,0.0,0.0,0.0,0.0,0.0,0.0,0.0,0.0,0.0,0.0,0.0,0.0,0.0,0.0,0.0,0.0,0.0,0.0,0.0,0.0,0.0,0.0,0.0,0.0,0.0,0.0,0.0,0.0,0.0,0.0,0.0,0.0,0.0,0.0,0.0,0.0,0.0,0.0,0.0,0.0,0.0,0.0,0.0,0.0,0.0,0.0,0.0,0.0,0.0,0.0,0.0,0.0,0.0,0.0,0.0,0.0,0.0,0.0,0.0,0.0,0.0,0.0,0.0,0.0,0.0,0.0,0.0,0.0,0.0,0.0,0.0,0.0,0.0,0.0,0.0,0.0,0.0,0.0,0.0,0.0,0.0,0.0,0.0,0.0,0.0,0.0,0.0,0.0,0.0,0.0,0.0,0.0,0.0,0.0,0.0,0.0,0.0,0.0,0.0,0.0,0.0,0.0,0.0,0.0,0.0,0.0,0.0,0.0,0.0,0.0,0.0,0.0,0.0,0.0,0.0,0.0,0.0,0.0,0.0,0.0,0.0,0.0,0.0,0.0,0.0,0.0,0.0,0.0,0.0,0.0,0.0,0.0,0.0,0.0,0.0,0.0,0.0,0.0,0.0,0.0,0.0,0.0,0.0,0.0,0.0,0.0,0.0,0.0,0.0,0.0,0.0,0.0,0.0,0.0,0.0,0.0,0.0,0.0,0.0,0.0,0.0,0.0,0.0,0.0,0.0,0.0,0.0,0.0,0.0,0.0,0.0,0.0,0.0,0.0,0.0,0.0,0.0,0.0,0.0,0.0,0.0,0.0,0.0,0.0,0.0,0.0,0.0,0.0,0.0,0.0,0.0,0.0,0.0,0.0,0.0,0.0,0.0,0.0,0.0,0.0,0.0,0.0,0.0,0.0,0.0,0.0,0.0,0.0,0.0,0.0,0.0,0.0,0.0,0.0,0.0,0.0,0.0,0.0,0.0,0.0,0.0,0.0,0.0,0.0,0.0,0.0,0.0,0.0,0.0,0.0,0.0,0.0,0.0,0.0,0.0,0.0,0.0,0.0,0.0,0.0,0.0,0.0,0.0,0.0,0.0,0.0,0.0,0.0,0.0,0.0,0.0,0.0,0.0,0.0,0.0,0.0,0.0,0.0,0.0,0.0,0.0,0.0,0.0,0.0,0.0,0.0,0.0,0.0,0.0,0.0,0.0,0.0,0.0,0.0,0.0,0.0,0.0,0.0,0.0,0.0,0.0,0.0,0.0,0.0,0.0,0.0,0.0,0.0,0.0,0.0,0.0,0.0,0.0,0.0,0.0,0.0,0.0,0.0,0.0,0.0,0.0,0.0,0.0,0.0,0.0,0.0,0.0,0.0,0.0,0.0,0.0,0.0,0.0,0.0,0.0,0.0,0.0,0.0,0.0,0.0,0.0,0.0,0.0,0.0,0.0,0.0,0.0,0.0,0.0,0.0,0.0,0.0,0.0,0.0,0.0,0.0,0.0,0.0,0.0,0.0,0.0,0.0,0.0,0.0,0.0,0.0,0.0,0.0,0.0,0.0,0.0,0.0,0.0,0.0,0.0,0.0,0.0,0.0,0.0,0.0,0.0,0.0,0.0,0.0,0.0,0.0,0.0,0.0,0.0,0.0,0.0,0.0,0.0,0.0,0.0,0.0,0.0,0.0,0.0,0.0,0.0,0.0,0.0,0.0,0.0,0.0,0.0,0.0,0.0,0.0,0.0,0.0,0.0,0.0,0.0,0.0,0.0,0.0,0.0,0.0,0.0,0.0,0.0,0.0,0.0,0.0,0.0,0.0,0.0,0.0,0.0,0.0,0.0,0.0,0.0,0.0,0.0,0.0,0.0,0.0,0.0,0.0,0.0,0.0,0.0,0.0,0.0,0.0,0.0,0.0,0.0,0.0,0.0,0.0,0.0,0.0,0.0,0.0,0.0,0.0,0.0,0.0,0.0,0.0,0.0,0.0,0.0,0.0,0.0,0.0,0.0,0.0,0.0,0.0,0.0,0.0,0.0,0.0,0.0,0.0,0.0,0.0,0.0,0.0,0.0,0.0,0.0,0.0,0.0,0.0,0.0,0.0,0.0,0.0,0.0,0.0,0.0,0.0,0.0,0.0,0.0,0.0,0.0,0.0,0.0,0.0,0.0,0.0,0.0,0.0,0.0,0.0,0.0,0.0,0.0,0.0,0.0,0.0,0.0,0.0,0.0,0.0,0.0,0.0,0.0,0.0,0.0,0.0,0.0,0.0,0.0,0.0,0.0,0.0,0.0,0.0,0.0,0.0,0.0,0.0,0.0,0.0,0.0,0.0,0.0,0.0,0.0,0.0,0.0,0.0,0.0,0.0,0.0,0.0,0.0,0.0,0.0,0.0,0.0,0.0,0.0,0.0,0.0,0.0,0.0,0.0,0.0,0.0,0.0,0.0,0.0,0.0,0.0,0.0,0.0,0.0,0.0,0.0,0.0,0.0,0.0,0.0,0.0,0.0,0.0,0.0,0.0,0.0,0.0,0.0,0.0,0.0,0.0,0.0,0.0,0.0,0.0,0.0,0.0,0.0,0.0,0.0,0.0,0.0,0.0,0.0,0.0,0.0,0.0,0.0,0.0,0.0,0.0,0.0,0.0,0.0,0.0,0.0,0.0,0.0,0.0,0.0,0.0,0.0,0.0,0.0,0.0,0.0,0.0,0.0,0.0,0.0,0.0,0.0,0.0,0.0,0.0,0.0,0.0,0.0,0.0,0.0,0.0,0.0,0.0,0.0,0.0,0.0,0.0,0.0,0.0,0.0,0.0,0.0,0.0,0.0,0.0,0.0,0.0,0.0,0.0,0.0,0.0,0.0,0.0,0.0,0.0,0.0,0.0,0.0,0.0,0.0,0.0,0.0,0.0,0.0,0.0,0.0,0.0,0.0,0.0,0.0,0.0,0.0,0.0,0.0,0.0,0.0,0.0,0.0,0.0,0.0,0.0,0.0,0.0,0.0,0.0,0.0,0.0,0.0,0.0,0.0,0.0,0.0,0.0,0.0,0.0,0.0,0.0,0.0,0.0,0.0,0.0,0.0,0.0,0.0,0.0,0.0,0.0,0.0,0.0,0.0,0.0,0.0,0.0,0.0,0.0,0.0,0.0,0.0,0.0,0.0,0.0,0.0,0.0,0.0,0.0,0.0,0.0,0.0,0.0,0.0,0.0,0.0,0.0,0.0,0.0,0.0,0.0,0.0,0.0,0.0,0.0,0.0,0.0,0.0,0.0,0.0,0.0,0.0,0.0,0.0,0.0,0.0,0.0,0.0,0.0,0.0,0.0,0.0,0.0,0.0,0.0,0.0,0.0,0.0,0.0,0.0,0.0,0.0,0.0,0.0,0.0,0.0,0.0,0.0,0.0,0.0,0.0,0.0,0.0,0.0,0.0,0.0,0.0,0.0,0.0,0.0,0.0,0.0,0.0,0.0,0.0,0.0,0.0,0.0,0.0,0.0,0.0,0.0,0.0,0.0,0.0,0.0,0.0,0.0,0.0,0.0,0.0,0.0,0.0,0.0,0.0,0.0,0.0,0.0,0.0,0.0,0.0,0.0,0.0,0.0,0.0,0.0,0.0,0.0,0.0,0.0,0.0,0.0,0.0,0.0,0.0,0.0,0.0,0.0,0.0,0.0,0.0,0.0,0.0,0.0,0.0,0.0,0.0,0.0,0.0,0.0,0.0,0.0,0.0,0.0,0.0,0.0,0.0,0.0,0.0,0.0,0.0,0.0,0.0,0.0,0.0,0.0,0.0,0.0,0.0,0.0,0.0,0.0,0.0,0.0,0.0,0.0,0.0,0.0,0.0,0.0,0.0,0.0,0.0,0.0,0.0,0.0,0.0,0.0,0.0,0.0,0.0,0.0,0.0,0.0,0.0,0.0,0.0,0.0,0.0,0.0,0.0,0.0,0.0,0.0,0.0,0.0,0.0,0.0,0.0,0.0,0.0,0.0,0.0,0.0,0.0,0.0,0.0,0.0,0.0,0.0,0.0,0.0,0.0,0.0,0.0,0.0,0.0,0.0,0.0,0.0,0.0,0.0,0.0,0.0,0.0,0.0,0.0,0.0,0.0,0.0,0.0,0.0,0.0,0.0,0.0,0.0,0.0,0.0,0.0,0.0,0.0,0.0,0.0,0.0,0.0,0.0,0.0,0.0,0.0,0.0,0.0,0.0,0.0,0.0,0.0,0.0,0.0,0.0,0.0,0.0,0.0,0.0,0.0,0.0,0.0,0.0,0.0,0.0,0.0,0.0,0.0,0.0,0.0,0.0,0.0,0.0,0.0,0.0,0.0,0.0,0.0,0.0,0.0,0.0,0.0,0.0,0.0,0.0,0.0,0.0,0.0,0.0,0.0,0.0,0.0,0.0,0.0,0.0,0.0,0.0,0.0,0.0,0.0,0.0,0.0,0.0,0.0,0.0,0.0,0.0,0.0,0.0,0.0,0.0,0.0,0.0,0.0,0.0,0.0,0.0,0.0,0.0,0.0,0.0,0.0,0.0,0.0,0.0,0.0,0.0,0.0,0.0,0.0,0.0,0.0,0.0,0.0,0.0,0.0,0.0,0.0,0.0,0.0,0.0,0.0,0.0,0.0,0.0,0.0,0.0,0.0,0.0,0.0,0.0,0.0,0.0,0.0,0.0,0.0,0.0,0.0,0.0,0.0,0.0,0.0,0.0,0.0,0.0,0.0,0.0,0.0,0.0,0.0,0.0,0.0,0.0,0.0,0.0,0.0,0.0,0.0,0.0,0.0,0.0,0.0,0.0,0.0,0.0,0.0,0.0,0.0,0.0,0.0,0.0,0.0,0.0,0.0,0.0,0.0,0.0,0.0,0.0,0.0,0.0,0.0,0.0,0.0,0.0,0.0,0.0,0.0,0.0,0.0,0.0,0.0,0.0,0.0,0.0,0.0,0.0,0.0,0.0,0.0,0.0,0.0,0.0,0.0,0.0,0.0,0.0,0.0,0.0,0.0,0.0,0.0,0.0,0.0,0.0,0.0,0.0,0.0,0.0,0.0,0.0,0.0,0.0,0.0,0.0,0.0,0.0,0.0,0.0,0.0,0.0,0.0,0.0,0.0,0.0,0.0,0.0,0.0,0.0,0.0,0.0,0.0,0.0,0.0,0.0,0.0,0.0,0.0,0.0,0.0,0.0,0.0,0.0,0.0,0.0,0.0,0.0,0.0,0.0,0.0,0.0,0.0,0.0,0.0,0.0,0.0,0.0,0.0,0.0,0.0,0.0,0.0,0.0,0.0,0.0,0.0,0.0,0.0,0.0,0.0,0.0,0.0,0.0,0.0,0.0,0.0,0.0,0.0,0.0,0.0,0.0,0.0,0.0,0.0,0.0,0.0,0.0,0.0,0.0,0.0,0.0,0.0,0.0,0.0,0.0,0.0,0.0,0.0,0.0,0.0,0.0,0.0,0.0,0.0,0.0,0.0,0.0,0.0,0.0,0.0,0.0,0.0,0.0,0.0,0.0,0.0,0.0,0.0,0.0,0.0,0.0,0.0,0.0,0.0,0.0,0.0,0.0,0.0,0.0,0.0,0.0,0.0,0.0,0.0,0.0,0.0,0.0,0.0,0.0,0.0,0.0,0.0,0.0,0.0,0.0,0.0,0.0,0.0,0.0,0.0,0.0,0.0,0.0,0.0,0.0,0.0,0.0,0.0,0.0,0.0,0.0,0.0,0.0,0.0,0.0,0.0,0.0,0.0,0.0,0.0,0.0,0.0,0.0,0.0,0.0,0.0,0.0,0.0,0.0,0.0,0.0,0.0,0.0,0.0,0.0,0.0,0.0,0.0,0.0,0.0,0.0,0.0,0.0,0.0,0.0,0.0,0.0,0.0,0.0,0.0,0.0,0.0,0.0,0.0,0.0,0.0,0.0,0.0,0.0,0.0,0.0,0.0,0.0,0.0,0.0,0.0,0.0,0.0,0.0,0.0,0.0,0.0,0.0,0.0,0.0,0.0,0.0,0.0,0.0,0.0,0.0,0.0,0.0,0.0,0.0,0.0,0.0,0.0,0.0,0.0,0.0,0.0,0.0,0.0,0.0,0.0,0.0,0.0,0.0,0.0,0.0,0.0,0.0,0.0,0.0,0.0,0.0,0.0,0.0,0.0,0.0,0.0,0.0,0.0,0.0,0.0,0.0,0.0,0.0,0.0,0.0,0.0,0.0,0.0,0.0,0.0,0.0,0.0,0.0,0.0,0.0,0.0,0.0,0.0,0.0,0.0,0.0,0.0,0.0,0.0,0.0,0.0,0.0,0.0,0.0,0.0,0.0,0.0,0.0,0.0,0.0,0.0,0.0,0.0,0.0,0.0,0.0,0.0,0.0,0.0,0.0,0.0,0.0,0.0,0.0,0.0,0.0,0.0,0.0,0.0,0.0,0.0,0.0,0.0,0.0,0.0,0.0,0.0,0.0,0.0,0.0,0.0,0.0,0.0,0.0,0.0,0.0,0.0,0.0,0.0,0.0,0.0,0.0,0.0,0.0,0.0,0.0,0.0,0.0,0.0,0.0,0.0,0.0,0.0,0.0,0.0,0.0,0.0,0.0,0.0,0.0,0.0,0.0,0.0,0.0,0.0,0.0,0.0,0.0,0.0,0.0,0.0,0.0,0.0,0.0,0.0,0.0,0.0,0.0,0.0,0.0,0.0,0.0,0.0,0.0,0.0,0.0,0.0,0.0,0.0,0.0,0.0,0.0,0.0,0.0,0.0,0.0,0.0,0.0,0.0,0.0,0.0,0.0,0.0,0.0,0.0,0.0,0.0,0.0,0.0,0.0,0.0,0.0,0.0,0.0,0.0,0.0,0.0,0.0,0.0,0.0,0.0,0.0,0.0,0.0,0.0,0.0,0.0,0.0,0.0,0.0,0.0,0.0,0.0,0.0,0.0,0.0,0.0,0.0,0.0,0.0,0.0,0.0,0.0,0.0,0.0,0.0,0.0,0.0,0.0,0.0,0.0,0.0,0.0,0.0,0.0,0.0,0.0,0.0,0.0,0.0,0.0,0.0,0.0,0.0,0.0,0.0,0.0,0.0,0.0,0.0,0.0,0.0,0.0,0.0,0.0,0.0,0.0,0.0,0.0,0.0,0.0,0.0,0.0,0.0,0.0,0.0,0.0,0.0,0.0,0.0,0.0,0.0,0.0,0.0,0.0,0.0,0.0,0.0,0.0,0.0,0.0,0.0,0.0,0.0,0.0,0.0,0.0,0.0,0.0,0.0,0.0,0.0,0.0,0.0,0.0,0.0,0.0,0.0,0.0,0.0,0.0,0.0,0.0,0.0,0.0,0.0,0.0,0.0,0.0,0.0,0.0,0.0,0.0,0.0,0.0,0.0,0.0,0.0,0.0,0.0,0.0,0.0,0.0,0.0,0.0,0.0,0.0,0.0,0.0,0.0,0.0,0.0,0.0,0.0,0.0,0.0,0.0,0.0,0.0,0.0,0.0,0.0,0.0,0.0,0.0,0.0,0.0,0.0,0.0,0.0,0.0,0.0,0.0,0.0,0.0,0.0,0.0,0.0,0.0,0.0,0.0,0.0,0.0,0.0,0.0,0.0,0.0,0.0,0.0,0.0,0.0,0.0,0.0,0.0,0.0,0.0,0.0,0.0,0.0,0.0,0.0,0.0,0.0,0.0,0.0,0.0,0.0,0.0,0.0,0.0,0.0,0.0,0.0,0.0,0.0,0.0,0.0,0.0,0.0,0.0,0.0,0.0,0.0,0.0,0.0,0.0,0.0,0.0,0.0,0.0,0.0,0.0,0.0,0.0,0.0,0.0,0.0,0.0,0.0,0.0,0.0,0.0,0.0,0.0,0.0,0.0,0.0,0.0,0.0,0.0,0.0,0.0,0.0,0.0,0.0,0.0,0.0,0.0,0.0,0.0,0.0,0.0,0.0,0.0,0.0,0.0,0.0,0.0,0.0,0.0,0.0,0.0,0.0,0.0,0.0,0.0,0.0,0.0,0.0,0.0,0.0,0.0,0.0,0.0,0.0,0.0,0.0,0.0,0.0,0.0,0.0,0.0,0.0,0.0,0.0,0.0,0.0,0.0,0.0,0.0,0.0,0.0,0.0,0.0,0.0,0.0,0.0,0.0,0.0,0.0,0.0,0.0,0.0,0.0,0.0,0.0,0.0,0.0,0.0,0.0,0.0,0.0,0.0,0.0,0.0,0.0,0.0,0.0,0.0,0.0,0.0,0.0,0.0,0.0,0.0,0.0,0.0,0.0,0.0,0.0,0.0,0.0,0.0,0.0,0.0,0.0,0.0,0.0,0.0,0.0,0.0,0.0,0.0,0.0,0.0,0.0,0.0,0.0,0.0,0.0,0.0,0.0,0.0,0.0,0.0,0.0,0.0,0.0,0.0,0.0,0.0,0.0,0.0,0.0,0.0,0.0,0.0,0.0,0.0,0.0,0.0,0.0,0.0,0.0,0.0,0.0,0.0,0.0,0.0,0.0,0.0,0.0,0.0,0.0,0.0,0.0,0.0,0.0,0.0,0.0,0.0,0.0,0.0,0.0,0.0,0.0,0.0,0.0,0.0,0.0,0.0,0.0,0.0,0.0,0.0,0.0,0.0,0.0,0.0,0.0,0.0,0.0,0.0,0.0,0.0,0.0,0.0,0.0,0.0,0.0,0.0,0.0,0.0,0.0,0.0,0.0,0.0,0.0,0.0,0.0,0.0,0.0,0.0,0.0,0.0,0.0,0.0,0.0,0.0,0.0,0.0,0.0,0.0,0.0,0.0,0.0,0.0,0.0,0.0,0.0,0.0,0.0,0.0,0.0,0.0,0.0,0.0,0.0,0.0,0.0,0.0,0.0,0.0,0.0,0.0,0.0,0.0,0.0,0.0,0.0,0.0,0.0,0.0,0.0,0.0,0.0,0.0,0.0,0.0,0.0,0.0,0.0,0.0,0.0,0.0,0.0,0.0,0.0,0.0,0.0,0.0,0.0,0.0,0.0,0.0,0.0,0.0,0.0,0.0,0.0,0.0,0.0,0.0,0.0,0.0,0.0,0.0,0.0,0.0,0.0,0.0,0.0,0.0,0.0,0.0,0.0,0.0,0.0,0.0,0.0,0.0,0.0,0.0,0.0,0.0,0.0,0.0,0.0,0.0,0.0,0.0,0.0,0.0,0.0,0.0,0.0,0.0,0.0,0.0,0.0,0.0,0.0,0.0,0.0,0.0,0.0,0.0,0.0,0.0,0.0,0.0,0.0,0.0,0.0,0.0,0.0,0.0,0.0,0.0,0.0,0.0,0.0,0.0,0.0,0.0,0.0,0.0,0.0,0.0,0.0,0.0,0.0,0.0,0.0,0.0,0.0,0.0,0.0,0.0,0.0,0.0,0.0,0.0,0.0,0.0,0.0,0.0,0.0,0.0,0.0,0.0,0.0,0.0,0.0,0.0,0.0,0.0,0.0,0.0,0.0,0.0,0.0,0.0,0.0,0.0,0.0,0.0,0.0,0.0,0.0,0.0,0.0,0.0,0.0,0.0,0.0,0.0,0.0,0.0,0.0,0.0,0.0,0.0,0.0,0.0,0.0,0.0,0.0,0.0,0.0,0.0,0.0,0.0,0.0,0.0,0.0,0.0,0.0,0.0,0.0,0.0,0.0,0.0,0.0,0.0,0.0,0.0,0.0,0.0,0.0,0.0,0.0,0.0,0.0,0.0,0.0,0.0,0.0,0.0,0.0,0.0,0.0,0.0,0.0,0.0,0.0,0.0,0.0,0.0,0.0,0.0,0.0,0.0,0.0,0.0,0.0,0.0,0.0,0.0,0.0,0.0,0.0,0.0,0.0,0.0,0.0,0.0,0.0,0.0,0.0,0.0,0.0,0.0,0.0,0.0,0.0,0.0,0.0,0.0,0.0,0.0,0.0,0.0,0.0,0.0,0.0,0.0,0.0,0.0,0.0,0.0,0.0,0.0,0.0,0.0,0.0,0.0,0.0,0.0,0.0,0.0,0.0,0.0,0.0,0.0,0.0,0.0,0.0,0.0,0.0,0.0,0.0,0.0,0.0,0.0,0.0,0.0,0.0,0.0,0.0,0.0,0.0,0.0,0.0,0.0,0.0,0.0,0.0,0.0,0.0,0.0,0.0,0.0,0.0,0.0,0.0,0.0,0.0,0.0,0.0,0.0,0.0,0.0,0.0,0.0,0.0,0.0,0.0,0.0,0.0,0.0,0.0,0.0,0.0,0.0,0.0,0.0,0.0,0.0,0.0,0.0,0.0,0.0,0.0,0.0,0.0,0.0,0.0,0.0,0.0,0.0,0.0,0.0,0.0,0.0,0.0,0.0,0.0,0.0,0.0,0.0,0.0,0.0,0.0,0.0,0.0,0.0,0.0,0.0,0.0,0.0,0.0,0.0,0.0,0.0,0.0,0.0,0.0,0.0,0.0,0.0,0.0,0.0,0.0,0.0,0.0,0.0,0.0,0.0,0.0,0.0,0.0,0.0,0.0,0.0,0.0,0.0,0.0,0.0,0.0,0.0,0.0,0.0,0.0,0.0,0.0,0.0,0.0,0.0,0.0,0.0,0.0,0.0,0.0,0.0,0.0,0.0,0.0,0.0,0.0,0.0,0.0,0.0,0.0,0.0,0.0,0.0,0.0,0.0,0.0,0.0,0.0,0.0,0.0,0.0,0.0,0.0,0.0,0.0,0.0,0.0,0.0,0.0,0.0,0.0,0.0,0.0,0.0,0.0,0.0,0.0,0.0,0.0,0.0,0.0,0.0,0.0,0.0,0.0,0.0,0.0,0.0,0.0,0.0,0.0,0.0,0.0,0.0,0.0,0.0,0.0,0.0,0.0,0.0,0.0,0.0,0.0,0.0,0.0,0.0,0.0,0.0,0.0,0.0,0.0,0.0,0.0,0.0,0.0,0.0,0.0,0.0,0.0,0.0,0.0,0.0,0.0,0.0,0.0,0.0,0.0,0.0,0.0,0.0,0.0,0.0,0.0,0.0,0.0,0.0,0.0,0.0,0.0,0.0,0.0,0.0,0.0,0.0,0.0,0.0,0.0,0.0,0.0,0.0,0.0,0.0,0.0,0.0,0.0,0.0,0.0,0.0,0.0,0.0,0.0,0.0,0.0,0.0,0.0,0.0,0.0,0.0,0.0,0.0,0.0,0.0,0.0,0.0,0.0,0.0,0.0,0.0,0.0,0.0,0.0,0.0,0.0,0.0,0.0,0.0,0.0,0.0,0.0,0.0,0.0,0.0,0.0,0.0,0.0,0.0,0.0,0.0,0.0,0.0,0.0,0.0,0.0,0.0,0.0,0.0,0.0,0.0,0.0,0.0,0.0,0.0,0.0,0.0,0.0,0.0,0.0,0.0,0.0,0.0,0.0,0.0,0.0,0.0,0.0,0.0,0.0,0.0,0.0,0.0,0.0,0.0,0.0,0.0,0.0,0.0,0.0,0.0,0.0,0.0,0.0,0.0,0.0,0.0,0.0,0.0,0.0,0.0,0.0,0.0,0.0,0.0,0.0,0.0,0.0,0.0,0.0,0.0,0.0,0.0,0.0,0.0,0.0,0.0,0.0,0.0,0.0,0.0,0.0,0.0,0.0,0.0,0.0,0.0,0.0,0.0,0.0,0.0,0.0,0.0,0.0,0.0,0.0,0.0,0.0,0.0,0.0,0.0,0.0,0.0,0.0,0.0,0.0,0.0,0.0,0.0,0.0,0.0,0.0,0.0,0.0,0.0,0.0,0.0,0.0,0.0,0.0,0.0,0.0,0.0,0.0,0.0,0.0,0.0,0.0,0.0,0.0,0.0,0.0,0.0,0.0,0.0,0.0,0.0,0.0,0.0,0.0,0.0,0.0,0.0,0.0,0.0,0.0,0.0,0.0,0.0,0.0,0.0,0.0,0.0,0.0,0.0,0.0,0.0,0.0,0.0,0.0,0.0,0.0,0.0,0.0,0.0,0.0,0.0,0.0,0.0,0.0,0.0,0.0,0.0,0.0,0.0,0.0,0.0,0.0,0.0,0.0,0.0,0.0,0.0,0.0,0.0,0.0,0.0,0.0,0.0,0.0,0.0,0.0,0.0,0.0,0.0,0.0,0.0,0.0,0.0,0.0,0.0,0.0,0.0,0.0,0.0,0.0,0.0,0.0,0.0,0.0,0.0,0.0,0.0,0.0,0.0,0.0,0.0,0.0,0.0,0.0,0.0,0.0,0.0,0.0,0.0,0.0,0.0,0.0,0.0,0.0,0.0,0.0,0.0,0.0,0.0,0.0,0.0,0.0,0.0,0.0,0.0,0.0,0.0,0.0,0.0,0.0,0.0,0.0,0.0,0.0,0.0,0.0,0.0,0.0,0.0,0.0,0.0,0.155,0.2533,0.2558,0.1574,0.1182,0.1184,0.1184,0.1184,0.1184,0.1383,0.1385,0.1385,0.1388,0.1389,0.1389,0.1389,0.1395,0.1204,0.0401,0.0,0.0,0.0,0.0,0.0,0.0,0.0,0.0,0.0,0.0,0.0,0.0,0.0,0.0,0.0,0.0,0.0,0.0,0.0,0.0,0.0,0.0,0.0,0.0,0.0,0.0,0.0,0.0,0.0,0.0,0.0,0.0,0.0,0.0,0.0,0.0,0.0,0.0,0.0,0.0,0.0,0.0,0.0,0.0,0.0,0.0,0.0,0.0,0.0,0.0,0.0,0.0,0.0,0.0,0.0,0.0,0.0,0.0,0.0,0.0,0.0,0.0,0.0,0.0,0.0,0.0,0.0,0.0,0.0,0.0,0.0,0.0,0.0,0.0,0.0,0.0,0.0,0.0,0.0,0.0,0.0,0.0,0.0,0.0,0.0,0.0,0.0,0.0,0.0,0.0,0.0,0.0,0.0,0.7417,1.1456,1.155,0.7547,0.5774,0.5618,0.5618,0.5618,0.5621,0.5871,0.6096,0.6098,0.5945,0.5967,0.5967,0.5967,0.5969,0.5563,0.1648,0.0,0.0,0.0,0.0,0.0,0.0,0.0,0.0,0.0,0.0,0.0,0.0,0.0,0.0,0.0,0.0,0.0,0.0,0.0,0.0,0.0,0.0,0.0,0.0,0.0,0.0,0.0,0.0,0.0,0.0,0.0,0.0,0.0,0.0,0.0,0.0,0.0,0.0,0.0,0.0,0.0,0.0,0.0,0.0,0.0,0.0,0.0,0.0,0.0,0.0,0.0,0.0,0.0,0.0,0.0,0.0,0.0,0.0,0.0,0.0,0.0,0.0,0.0,0.0,0.0,0.0,0.0,0.0,0.0,0.0,0.0,0.0,0.0,0.0,0.0,0.0,0.0,0.0,0.0,0.0,0.0,0.0,0.0,0.0,0.0,0.0,0.0,0.0,0.0,0.0,0.0,0.0,0.0,0.8292,1.3002,1.3385,1.134,1.0366,1.0457,1.0457,1.0666,1.1283,1.153,1.1549,1.1749,1.1798,1.1817,1.1817,1.1817,1.1817,1.1606,0.9732,0.7238,0.4545,0.1239,0.0,0.0,0.0,0.0,0.0,0.0,0.0,0.0,0.0,0.0,0.0,0.0,0.0,0.0,0.0,0.0,0.0,0.0,0.0,0.0,0.0,0.0,0.0,0.0,0.0,0.0,0.0,0.0,0.0,0.0,0.0,0.0,0.0,0.0,0.0,0.0,0.0,0.0,0.0,0.0,0.0,0.0,0.0,0.0,0.0,0.0,0.0,0.0,0.0,0.0,0.0,0.0,0.0,0.0,0.0,0.0,0.0,0.0,0.0,0.0,0.0,0.0,0.0,0.0,0.0,0.0,0.0,0.0,0.0,0.0,0.0,0.0,0.0,0.0,0.0,0.0,0.0,0.0,0.0,0.0191,0.0766,0.0386,0.0194,0.0777,0.0977,0.0588,0.0,0.2164,0.3561,0.3579,1.0028,1.3598,1.3978,1.3774,1.3615,1.3705,1.3705,1.4117,1.4959,1.4996,1.5026,1.5258,1.5258,1.5258,1.5258,1.5258,1.5258,1.5258,1.5478,1.3363,0.9996,0.6053,0.3546,0.1665,0.0418,0.0,0.0,0.0,0.0,0.0,0.0,0.0,0.0,0.0,0.0,0.0,0.0,0.0,0.0,0.0,0.0,0.0,0.0,0.0,0.0,0.0,0.0,0.0,0.0,0.0,0.0,0.0,0.0,0.0,0.0,0.0,0.0,0.0,0.0,0.0,0.0,0.0,0.0,0.0,0.0,0.0,0.0,0.0,0.0,0.0,0.0,0.0,0.0,0.0,0.0,0.0,0.0,0.0,0.0,0.0,0.0,0.0,0.0,0.0,0.0,0.0,0.0,0.0,0.0,0.0,0.0,0.0,0.0,0.0,0.0,0.0,0.0,0.0,0.0,0.0,0.0,0.0773,0.2896,0.116,0.0777,0.2937,0.3135,0.2154,0.0195,0.7967,1.25,1.2479,1.3938,1.4898,1.4886,1.4886,1.4886,1.4892,1.4892,1.4892,1.4898,1.5026,1.5161,1.5277,1.5277,1.5277,1.5277,1.5277,1.5277,1.5277,1.5741,1.5754,1.5754,1.6215,1.227,0.5869,0.1481,0.0,0.0,0.0,0.0,0.0,0.0,0.0,0.0,0.0,0.0,0.0,0.0,0.0,0.0,0.0,0.0,0.0,0.0,0.0,0.0,0.0,0.0,0.0,0.0,0.0,0.0,0.0,0.0,0.0,0.0,0.0,0.0,0.0,0.0,0.0,0.0,0.0,0.0,0.0,0.0,0.0,0.0,0.0,0.0,0.0,0.0,0.0,0.0,0.0,0.0,0.0,0.0,0.0,0.0,0.0,0.0,0.0,0.0,0.0,0.0,0.0,0.0,0.0,0.0,0.0,0.0,0.0,0.0,0.0,0.0,0.0,0.0,0.0,0.0,0.0,0.1165,0.2344,0.3144,0.2559,0.1774,0.1183,0.636,0.9404,0.8632,1.2765,1.5114,1.5596,1.6108,1.6207,1.63,1.5446,1.5069,1.5148,1.5572,1.578,1.578,1.625,1.6302,1.6348,1.6348,1.6393,1.6472,1.638,1.64,1.6472,1.6604,1.6578,1.6367,1.5096,1.2932,1.0568,1.0192,0.6162,0.1063,0.1064,0.0639,0.0,0.0,0.0,0.0,0.0,0.0,0.0,0.0,0.0,0.0,0.0,0.0,0.0,0.0,0.0,0.0,0.0,0.0,0.0,0.0,0.0,0.0,0.0,0.0,0.0,0.0,0.0,0.0,0.0,0.0,0.0,0.0,0.0,0.0,0.0,0.0,0.0,0.0,0.0,0.0,0.0,0.0,0.0,0.0,0.0,0.0,0.0,0.0,0.0,0.4836,0.3187,0.1039,0.1087,0.1104,0.0926,0.0187,0.0,0.0,0.0,0.0,0.0,0.0,0.0,0.0,0.0,0.0,0.0,0.0,0.3161,0.4346,0.1554,0.2344,0.4331,0.7534,0.7768,0.6979,0.4774,1.0462,1.4024,1.4071,1.5621,1.6558,1.7058,1.6907,1.6982,1.7078,1.6223,1.5857,1.599,1.6367,1.64,1.6498,1.6869,1.7087,1.7134,1.7134,1.7188,1.7263,1.7175,1.7188,1.7263,1.7175,1.7134,1.6922,1.5417,1.4774,1.4343,1.4309,1.022,0.4894,0.2979,0.192,0.107,0.064,0.0641,0.0642,0.064,0.0213,0.0,0.0,0.0,0.0,0.0,0.0,0.0,0.0,0.0,0.0,0.0,0.0,0.0,0.0,0.0,0.0,0.0,0.0,0.0,0.0,0.0,0.0,0.0,0.0,0.0,0.0,0.0,0.0,0.0,0.0,0.0,0.0,0.0,0.0,0.0,0.0,0.0,0.0,0.0,0.0,0.0,0.0,0.0,1.3472,0.9056,0.351,0.3479,0.3516,0.2973,0.1136,0.057,0.0572,0.0582,0.0762,0.0563,0.0191,0.0,0.0,0.0,0.0,0.04,0.0787,0.8708,1.191,0.4702,0.3939,0.7132,0.0,0.0,1.5351,1.3307,1.4855,1.6158,1.6145,1.6619,1.6982,1.6975,1.691,1.6978,1.6978,1.6978,1.7046,1.7182,1.7053,1.7134,1.7405,1.7263,1.7283,1.7419,1.7419,1.7426,1.7433,1.7426,1.7426,1.7433,1.7426,1.7419,1.7419,1.7203,1.7203,1.6733,1.3519,1.1973,1.0474,0.5336,0.365,0.3237,0.214,0.1718,0.1726,0.1712,0.1067,0.0214,0.0,0.0,0.0,0.0,0.0,0.0,0.0,0.0,0.0,0.0,0.0,0.0,0.0,0.0,0.0,0.0,0.0,0.0,0.0,0.0,0.0,0.0,0.0,0.0,0.0,0.0,0.0,0.0,0.0,0.0,0.0,0.0,0.0,0.0,0.0,0.0,0.0,0.0,0.0,0.0,0.0,0.0,1.478,1.2431,0.9888,0.9967,0.9841,0.9658,0.912,0.9428,0.9698,0.9603,1.0861,0.9523,0.1417,0.0,0.0,0.0,0.1377,0.4659,1.114,0.8636,0.7854,1.2295,1.2759,1.3678,1.583,1.6058,1.5903,1.5373,1.5753,1.6225,1.6845,1.6927,1.7023,1.6924,1.6958,1.6978,1.6978,1.6978,1.6998,1.7032,1.7107,1.7175,1.7256,1.7324,1.7385,1.7419,1.7419,1.7487,1.7582,1.7467,1.7487,1.7582,1.7467,1.7419,1.7203,1.5452,1.4798,1.4576,1.1933,1.084,1.0408,0.91,0.63,0.349,0.3047,0.3049,0.3053,0.3047,0.2827,0.2393,0.1526,0.1308,0.1312,0.1323,0.0663,0.0,0.0,0.0,0.0,0.0,0.0,0.0,0.0,0.0,0.0,0.0,0.0,0.0,0.0,0.0,0.0,0.0,0.0,0.0,0.0,0.0,0.0,0.0,0.0,0.0,0.0,0.0,0.0,0.0,0.0,0.0,0.0,0.0,0.0,0.0,0.0,0.0,1.516,1.4552,1.3822,1.3861,1.3915,1.3861,1.3835,1.4071,1.2911,0.8144,0.8117,0.7259,0.1197,0.0,0.037,0.1296,0.2358,0.4898,0.9828,0.95,1.0757,1.5525,1.6171,1.6065,1.6002,1.6415,1.6463,1.64,1.6551,1.6585,1.6955,1.703,1.7106,1.6978,1.6978,1.6978,1.6978,1.7107,1.7175,1.7175,1.7256,1.7358,1.7487,1.7507,1.7555,1.7616,0.0,1.767,1.7738,1.765,1.767,1.7738,1.765,1.7616,1.7391,1.6281,1.5633,1.5627,1.4304,1.2997,1.1882,0.9615,0.7219,0.4832,0.3725,0.3509,0.352,0.3506,0.3502,0.3287,0.2639,0.2642,0.2647,0.2671,0.2007,0.1339,0.0224,0.0,0.0,0.0,0.0,0.0,0.0,0.0,0.0,0.0,0.0,0.0,0.0,0.0,0.0,0.0,0.0,0.0,0.0,0.0,0.0,0.0,0.0,0.0,0.0,0.0,0.0,0.0,0.0,0.0,0.0,0.0,0.0,0.0,0.0,0.0,1.5242,1.5671,1.6117,1.6091,1.6133,1.6173,1.6131,1.5011,1.1283,0.1903,0.0,0.0,0.0,0.0705,0.1832,0.2943,0.3323,0.3665,0.5038,1.1551,1.6132,1.6165,1.6152,1.6185,1.6121,1.6762,1.7037,1.6982,1.6996,1.6996,1.6996,1.691,1.6978,1.6978,1.7019,1.7032,1.7012,1.7283,1.7419,1.7419,1.7439,1.7582,1.7826,1.7717,1.7738,1.786,1.786,1.786,1.786,1.786,1.786,1.786,1.786,1.786,1.786,1.786,1.786,1.786,1.786,1.6533,1.4038,0.9455,0.7926,0.7076,0.5057,0.4193,0.3987,0.4181,0.3952,0.352,0.3549,0.3555,0.3562,0.3587,0.3594,0.2919,0.0898,0.0224,0.0,0.0,0.0,0.0,0.0,0.0,0.0,0.0,0.0,0.0,0.0,0.0,0.0,0.0,0.0,0.0,0.0,0.0,0.0,0.0,0.0,0.0,0.0,0.0,0.0,0.0,0.0,0.0,0.0,0.0,0.0,0.0,0.0,0.0,1.5527,1.589,1.6021,1.6172,1.6015,1.6035,1.6097,0.9198,0.2314,0.0332,0.0,0.0,0.0,0.4477,0.7122,0.3941,0.34,0.5914,1.3507,1.5486,1.6002,1.6068,1.649,1.6756,1.6907,1.6927,1.6989,1.6931,1.6944,1.6944,1.6944,1.6965,1.6978,1.6978,1.7222,1.7283,1.7154,1.7331,1.7419,1.7419,1.7548,1.7629,1.7684,1.7792,1.7846,1.786,1.786,0.0,1.786,1.786,1.786,1.786,1.786,1.786,1.786,1.786,1.786,1.786,1.786,1.7632,1.6741,1.4022,1.1798,1.0035,0.958,0.8027,0.6704,0.737,0.5579,0.3576,0.3583,0.3587,0.3587,0.3594,0.3594,0.3594,0.3143,0.1347,0.0,0.0,0.0,0.0,0.0,0.0,0.0,0.0,0.0,0.0,0.0,0.0,0.0,0.0,0.0,0.0,0.0,0.0,0.0,0.0,0.0,0.0,0.0,0.0,0.0,0.0,0.0,0.0,0.0,0.0,0.0,0.0,0.0,0.0,1.5806,1.6022,1.6089,1.6042,1.6083,1.6196,1.6015,0.7836,0.0,0.0,0.0,0.0,0.0,0.6486,0.9592,0.2649,0.169,0.3155,0.7465,1.2925,1.6632,1.6534,1.69,1.692,1.7071,1.7085,1.6904,1.6978,1.7046,1.7087,1.7087,1.7161,1.7209,1.7429,1.7641,1.7467,1.7311,1.7534,1.7616,1.7541,1.7684,1.7758,1.7758,1.7826,1.786,1.786,1.786,0.0,1.786,1.786,1.786,1.786,1.786,1.786,1.786,1.786,1.786,1.786,1.786,1.786,1.7639,1.6533,1.452,1.2288,1.118,0.9843,0.895,0.8067,0.6724,0.5157,0.3815,0.3589,0.3589,0.3141,0.2919,0.2694,0.2694,0.1347,0.0,0.0,0.0,0.0,0.0,0.0,0.0,0.0,0.0,0.0,0.0,0.0,0.0,0.0,0.0,0.0,0.0,0.0,0.0,0.0,0.0,0.0,0.0,0.0,0.0,0.0,0.0,0.0,0.0,0.0,0.0,0.0,0.0,0.0,1.5891,1.5987,1.6131,1.6056,1.6083,1.6105,1.6087,0.9525,0.2846,0.0449,0.0,0.0,0.0,0.5743,0.8244,0.1222,0.0,0.078,0.3227,1.1501,1.7155,1.6998,1.6924,1.7092,1.6971,1.6978,1.6978,1.6978,1.7141,1.7243,1.7243,1.7385,1.7676,1.7864,1.782,1.7623,1.7473,1.7738,1.7812,1.7704,1.7812,1.786,1.786,1.786,1.786,1.786,1.786,1.786,0.0,1.786,1.786,1.786,1.786,1.786,1.786,1.786,1.786,1.786,1.786,1.786,1.786,1.786,1.6514,1.4747,1.2738,1.1848,1.118,0.985,0.8507,0.6943,0.4259,0.3587,0.3365,0.2917,0.247,0.2245,0.2245,0.1347,0.0673,0.0449,0.0449,0.0449,0.0449,0.0449,0.0449,0.0449,0.0449,0.0449,0.0449,0.0449,0.0224,0.0,0.0,0.0,0.0,0.0,0.0,0.0,0.0,0.0,0.0,0.0,0.0,0.0,0.0,0.0,0.0,0.0,0.0,0.0,0.0,0.0,1.5334,1.5825,1.6062,1.6076,1.6083,1.6105,1.6087,1.5354,1.1807,0.2095,0.0,0.0,0.0,0.0618,0.0957,0.0172,0.0,0.3638,1.3982,1.6848,1.7523,1.71,1.6942,1.71,1.6992,1.6978,1.6978,1.6978,1.7463,1.7843,1.7843,1.7772,1.7792,1.7648,1.7704,1.7772,1.7629,1.7792,1.786,1.7846,1.786,1.786,1.786,1.786,1.786,1.786,1.786,1.786,0.0,1.786,1.786,1.786,1.786,1.786,1.786,1.786,1.786,1.786,1.786,1.786,1.786,1.786,1.786,1.7632,1.7418,1.5622,1.4292,1.6354,1.2738,0.7593,0.4474,0.358,0.3583,0.3589,0.3369,0.3369,0.3369,0.3369,0.2919,0.1796,0.1572,0.1572,0.1572,0.1572,0.1572,0.1572,0.1572,0.1572,0.1572,0.1572,0.1122,0.0224,0.0,0.0,0.0,0.0,0.0,0.0,0.0,0.0,0.0,0.0,0.0,0.0,0.0,0.0,0.0,0.0,0.0,0.0,0.0,0.0,1.4152,1.5195,1.6083,1.6083,1.6151,1.6081,1.6042,1.0992,0.5113,0.0895,0.0,0.0,0.0,0.0,0.0,0.0,0.0,0.1601,0.6098,1.3137,1.7762,1.7569,1.7217,1.7016,1.7051,1.6931,1.7053,1.7009,1.7662,1.782,1.7909,1.7964,1.7758,1.769,1.7812,1.7826,1.7772,1.7826,1.786,1.786,1.786,1.786,1.786,1.786,1.786,1.786,1.786,1.786,0.0,1.786,1.786,1.786,1.786,1.786,1.786,1.786,1.786,1.786,1.786,1.786,1.786,1.786,1.786,1.786,1.786,1.7197,1.6305,1.588,1.3854,1.0945,0.6935,0.4703,0.3587,0.3589,0.3589,0.3589,0.3589,0.3589,0.3365,0.2917,0.2919,0.2919,0.2919,0.2919,0.2919,0.2919,0.2919,0.2919,0.2919,0.2919,0.2694,0.2245,0.0898,0.0,0.0,0.0,0.0,0.0,0.0,0.0,0.0,0.0,0.0,0.0,0.0,0.0,0.0,0.0,0.0,0.0,0.0,0.0,1.41,1.5056,1.6241,1.613,1.6069,1.6088,1.5697,0.7465,0.0,0.0,0.0,0.0,0.0,0.0,0.0,0.0,0.0,0.0,0.0,0.975,1.6984,1.7156,1.7059,1.6925,1.703,1.7092,1.7148,1.7183,1.7568,1.7944,1.786,1.786,1.786,1.786,1.786,1.786,1.786,1.786,1.786,1.786,1.786,1.786,1.786,1.786,1.786,1.786,1.786,1.786,0.0,1.786,1.786,1.786,1.786,1.786,1.786,1.786,1.786,1.786,1.786,1.786,1.786,1.786,1.786,1.786,1.786,1.786,1.7632,1.585,1.4292,1.2511,0.9174,0.5826,0.3589,0.3589,0.3589,0.3589,0.3589,0.3589,0.3589,0.3589,0.3589,0.3594,0.3594,0.3594,0.3594,0.3594,0.3594,0.3594,0.3594,0.3594,0.3594,0.3594,0.1796,0.0449,0.0,0.0,0.0,0.0,0.0,0.0,0.0,0.0,0.0,0.0,0.0,0.0,0.0,0.0,0.0,0.0,0.0,0.0,1.5149,1.611,1.6539,1.644,1.6286,1.5821,1.4544,0.6919,0.0,0.0,0.0,0.0,0.0,0.0,0.0,0.0,0.0,0.0,0.0,0.8349,1.4501,1.5202,1.6225,1.694,1.694,1.7058,1.7256,1.785,1.7792,0.0,1.786,1.786,1.786,1.786,1.786,1.786,1.786,1.786,1.786,1.786,1.786,1.786,1.786,1.786,1.786,1.786,1.786,1.786,0.0,1.786,1.786,1.786,1.786,1.786,1.786,1.786,1.786,1.786,1.786,1.786,1.786,1.786,1.786,1.786,1.786,1.786,1.786,1.786,1.452,1.073,1.073,0.7166,0.3589,0.3589,0.3589,0.3589,0.3589,0.3589,0.3589,0.3589,0.3589,0.3589,0.3589,0.3589,0.3589,0.3589,0.3589,0.3589,0.3589,0.3589,0.3589,0.3589,0.2917,0.1794,0.0224,0.0,0.0,0.0,0.0,0.0,0.0,0.0,0.0,0.0,0.0,0.0,0.0,0.0,0.0,0.0,0.0,0.0,1.2533,1.356,1.4343,1.4699,1.5556,1.4256,0.6317,0.224,0.0,0.0,0.0,0.0,0.0,0.0,0.0,0.0,0.0,0.2399,0.9325,1.2993,1.5056,1.5263,1.5499,1.6021,1.6968,1.6937,1.7154,1.7843,1.7792,1.7944,1.786,1.786,1.786,1.786,1.786,1.786,1.786,1.786,1.786,1.786,1.786,1.786,1.786,1.786,1.786,1.786,1.786,1.786,0.0,1.786,1.786,1.786,1.786,1.786,1.786,1.786,1.786,1.786,1.786,1.786,1.786,1.786,1.786,1.786,1.786,1.7935,1.8036,1.8145,1.5836,1.3293,1.3293,0.9664,0.605,0.605,0.4709,0.3589,0.3589,0.3589,0.3589,0.3589,0.3589,0.3589,0.3589,0.3589,0.3589,0.3589,0.3589,0.3589,0.3589,0.3589,0.3589,0.3589,0.3365,0.2243,0.0224,0.0,0.0,0.0,0.0,0.0,0.0,0.0,0.0,0.0,0.0,0.0,0.0,0.0,0.0,0.0,0.0,0.0,1.1129,1.1921,1.2814,1.3507,1.522,1.4892,0.7936,0.3116,0.0,0.0,0.0,0.0,0.0,0.0,0.0,0.0,0.0,0.3562,1.3758,1.5229,1.543,1.5784,1.587,1.622,1.7003,1.6965,1.7161,1.785,1.7792,1.7724,1.786,1.786,1.786,1.786,1.786,1.786,1.786,1.786,1.786,1.786,1.786,1.786,1.786,1.786,1.786,1.786,1.786,1.786,0.0,1.786,1.786,1.786,1.786,1.786,1.786,1.786,1.786,1.786,1.786,1.786,1.786,1.786,1.786,1.788,1.8002,1.8057,1.8111,1.8213,1.6346,1.4461,1.4417,1.1442,0.8284,0.7393,0.605,0.4709,0.3814,0.3589,0.3589,0.3589,0.3589,0.3589,0.3589,0.3589,0.3589,0.3589,0.3589,0.3589,0.3589,0.3589,0.3589,0.3589,0.3589,0.2917,0.1572,0.0898,0.0449,0.0,0.0,0.0,0.0,0.0,0.0,0.0,0.0,0.0,0.0,0.0,0.0,0.0,0.0,0.0,0.0,1.126,1.1921,1.2712,1.4754,1.6444,1.6419,0.7907,0.0,0.0,0.0,0.0,0.0,0.015,0.0153,0.0159,0.0647,0.4182,1.3547,1.5035,1.5775,1.6832,1.7006,1.7038,1.6967,1.6937,1.7243,1.785,1.7772,1.7704,1.786,1.786,1.786,1.786,1.786,1.786,1.786,1.786,1.786,1.786,1.786,1.786,1.786,1.786,1.786,0.0,1.786,1.786,0.0,1.786,1.786,1.786,1.786,1.786,1.786,1.786,1.786,1.786,1.786,1.786,1.786,1.786,1.786,1.7914,1.8213,1.8213,1.8111,1.8124,1.6528,1.4691,1.4564,1.2738,1.0504,0.8284,0.7393,0.65,0.4259,0.3814,0.3589,0.3589,0.3589,0.3589,0.3589,0.3589,0.3589,0.3589,0.3589,0.3589,0.3589,0.3589,0.3589,0.3589,0.3589,0.3589,0.3589,0.247,0.1347,0.0224,0.0,0.0,0.0,0.0,0.0,0.0,0.0,0.0,0.0,0.0,0.0,0.0,0.0,0.0,1.0669,0.0,1.042,1.0168,1.0908,1.1524,0.0,0.5336,0.0,0.0,0.0,0.0,0.0,0.1063,0.1871,0.1973,0.6576,1.0651,1.1641,1.4124,1.6062,1.6912,1.692,1.7051,1.7085,1.6971,1.7141,1.7405,1.7676,1.7589,1.7846,1.786,1.786,1.786,1.786,1.786,1.786,1.786,1.786,1.786,1.786,1.786,1.786,1.786,1.786,1.786,1.786,0.0,1.786,1.786,1.786,1.786,1.786,1.786,1.786,1.786,1.786,1.786,1.786,1.786,1.786,1.786,1.786,1.7901,1.8091,1.8199,1.8287,1.8389,1.7888,1.7324,1.7169,1.526,1.3399,1.2738,0.9839,0.6943,0.65,0.4933,0.3589,0.3589,0.3589,0.3589,0.3589,0.3589,0.3589,0.3589,0.3589,0.3589,0.3589,0.3589,0.3589,0.3589,0.3589,0.3589,0.3589,0.3365,0.3141,0.2694,0.1122,0.0,0.0,0.0,0.0,0.0,0.0,0.0,0.0,0.0,0.0,0.0,0.0,0.0,0.8656,0.8548,0.7751,0.6058,0.5789,0.5836,0.517,0.2491,0.0,0.0,0.0,0.1321,0.5382,0.6919,0.7481,0.7489,0.8121,0.9563,1.2796,1.4781,1.6286,1.6934,1.7099,1.6978,0.0,1.7039,1.7175,1.7405,1.7487,1.7623,1.7846,1.786,1.786,1.786,1.786,1.786,1.786,1.786,1.786,1.786,1.786,1.786,1.786,1.786,1.786,1.786,1.786,0.0,1.786,1.786,1.786,1.786,1.786,1.786,1.786,1.786,1.786,1.786,1.786,1.786,1.786,1.786,1.786,1.7901,1.8036,1.8145,1.8233,1.8301,1.8267,1.8179,1.8023,1.7033,1.5622,1.452,1.2288,0.9839,0.7611,0.6274,0.4933,0.3814,0.3589,0.3589,0.3589,0.3589,0.3589,0.3589,0.36,0.3607,0.3594,0.36,0.3604,0.3589,0.3589,0.3589,0.3589,0.3589,0.3589,0.3594,0.247,0.1122,0.0,0.0,0.0,0.0,0.0,0.0,0.0,0.0,0.0,0.0,0.0,0.0,0.6465,0.6002,0.5301,0.2975,0.2243,0.1808,0.0598,0.0147,0.0,0.0,0.0147,0.2664,1.0312,1.2494,1.3336,1.3607,0.869,0.7456,1.5022,1.6091,1.6393,1.6948,1.7099,0.0,1.6978,1.7305,1.7449,1.7628,1.7541,1.7684,1.7846,1.786,1.786,1.786,1.786,1.786,1.786,1.786,1.786,1.786,1.786,1.786,1.786,1.786,1.786,1.786,0.0,0.0,1.786,1.786,1.786,1.786,1.786,1.786,1.786,1.786,1.786,1.786,1.7901,1.7901,1.7901,1.7901,1.7901,1.7914,1.8023,1.8057,1.8057,1.8057,1.8077,1.8057,1.7901,1.786,1.7424,1.5407,1.4292,1.2738,0.8501,0.7166,0.605,0.4039,0.3589,0.3589,0.3589,0.3589,0.3589,0.3589,0.3614,0.3625,0.36,0.3618,0.3625,0.36,0.3594,0.3589,0.3589,0.3589,0.3589,0.3589,0.3589,0.2467,0.0,0.0,0.0,0.0,0.0,0.0,0.0,0.0,0.0,0.0,0.0,0.0,0.8169,0.7001,0.5651,0.7013,0.6693,0.5525,0.2554,0.0887,0.0,0.0,0.1046,0.2322,0.3742,0.8738,1.3076,1.4652,1.4798,1.5081,1.5964,1.6517,1.6934,1.6962,0.0,1.6978,1.6978,1.6998,1.7127,1.7399,1.7439,1.7575,1.7846,1.786,1.786,1.786,1.786,1.786,1.786,1.786,1.786,1.786,1.786,1.786,1.786,1.786,1.786,1.786,0.0,1.786,1.786,1.786,1.786,1.786,1.786,1.786,1.786,1.786,1.786,1.788,1.8002,1.8057,1.8057,1.8057,1.8057,1.8036,1.7935,1.7901,1.7901,1.7901,1.7989,1.8057,1.7901,1.786,1.786,1.7424,1.4292,1.0957,1.0281,0.6943,0.4039,0.3589,0.3589,0.3589,0.3589,0.3589,0.3589,0.3589,0.3614,0.3636,0.3628,0.3632,0.3632,0.3628,0.3604,0.3589,0.3589,0.3589,0.3589,0.3589,0.3589,0.2467,0.0,0.0,0.0,0.0,0.0,0.0,0.0,0.0,0.0,0.0,0.0,0.0,0.5553,0.517,0.5515,0.7877,0.8418,0.7778,0.6506,0.3583,0.1288,0.1234,0.1886,0.3572,0.8052,1.2122,1.509,1.5549,1.6736,1.722,1.6734,1.6836,1.7085,0.0,0.0,1.6978,1.6978,1.7127,1.7277,1.7412,1.7568,1.7724,1.786,1.786,1.786,1.786,1.786,1.786,1.786,1.786,1.786,1.786,1.786,1.786,1.786,1.786,1.786,1.786,0.0,1.786,1.786,1.786,1.786,1.786,1.786,1.786,1.786,1.786,1.7914,1.8002,1.8077,1.8091,1.8091,1.8091,1.8036,1.7948,1.788,1.786,1.786,1.786,1.7914,1.7948,1.788,1.786,1.786,1.786,1.6299,1.4292,1.2965,0.9843,0.7166,0.5826,0.4485,0.3589,0.3589,0.3589,0.3589,0.3589,0.3614,0.3636,0.3636,0.3649,0.3652,0.3639,0.3621,0.3607,0.3589,0.3589,0.3589,0.3589,0.3589,0.3141,0.2021,0.0673,0.0,0.0,0.0,0.0,0.0,0.0,0.0,0.0,0.0,0.0,0.3679,0.4083,0.592,0.8622,0.9273,0.9338,0.9957,0.7374,0.4675,0.4123,0.4526,0.6719,1.2979,1.5734,1.6921,1.6483,1.7127,1.769,1.7195,1.7121,1.7019,1.6985,1.6978,1.6978,1.6978,1.7216,1.7385,1.7419,1.767,1.7826,1.786,1.786,1.786,1.786,1.786,1.786,1.786,1.786,1.786,1.786,1.786,1.786,1.786,1.786,1.786,1.786,1.786,1.786,1.786,1.786,1.786,1.786,1.7901,1.7935,1.7968,1.7968,1.8023,1.8111,1.8165,1.8145,1.8091,1.8124,1.8036,1.7914,1.788,1.786,1.786,1.786,1.786,1.786,1.786,1.786,1.786,1.786,1.7411,1.6514,1.4747,1.2511,1.0066,0.8284,0.6493,0.5153,0.5153,0.4709,0.4709,0.5153,0.4293,0.3863,0.4314,0.4118,0.367,0.3639,0.3636,0.3621,0.3594,0.3589,0.3589,0.3589,0.3589,0.3589,0.3594,0.1572,0.0224,0.0,0.0,0.0,0.0,0.0,0.0,0.0,0.0,0.0,0.5524,0.6187,0.8044,1.0244,1.0221,1.0231,1.1816,1.2295,1.1571,0.9679,1.1082,1.2702,1.3329,1.5462,1.6907,1.6898,1.7384,1.7811,1.7767,0.0,1.6915,1.6998,1.6978,1.6978,1.6978,1.7121,1.727,1.7412,1.7575,1.7717,1.786,1.786,1.786,1.786,1.786,1.786,1.786,1.786,1.786,1.786,1.786,1.786,1.786,1.786,1.786,1.786,1.786,1.786,1.786,1.786,1.786,1.788,1.8023,1.8158,1.8287,1.8287,1.8199,1.8124,1.8409,1.8321,1.8111,1.8247,1.8199,1.8057,1.7901,1.786,1.786,1.786,1.786,1.786,1.786,1.786,1.786,1.786,1.6299,1.452,1.4292,1.2511,1.073,1.0504,1.0281,1.0289,1.0289,0.8284,0.7611,0.9839,0.6319,0.4314,0.6577,0.5028,0.367,0.3639,0.3636,0.3621,0.3594,0.3589,0.3589,0.3589,0.3589,0.3589,0.3594,0.247,0.1122,0.0,0.0,0.0,0.0,0.0,0.0,0.0,0.0,0.0,0.4806,0.629,0.8471,1.0443,1.1728,1.252,1.3719,1.4872,1.5153,1.3598,1.4525,1.5482,1.5094,1.5112,1.5507,1.5918,1.7092,1.7925,1.7822,1.7372,1.7056,1.6915,1.7032,1.6978,1.6978,1.7195,1.7358,1.7419,1.765,1.7812,1.786,1.786,1.786,1.786,1.786,1.786,1.786,1.786,1.786,1.786,1.786,1.786,1.786,1.786,1.786,1.786,1.786,1.786,1.786,1.7968,1.8002,1.8023,1.8179,1.8267,1.8321,1.8321,1.8335,1.8375,1.8498,1.8409,1.8247,1.8301,1.8145,1.7948,1.7989,1.8002,1.8002,1.8002,1.8002,1.7989,1.788,1.786,1.786,1.786,1.7197,1.6533,1.6533,1.4742,1.2965,1.2965,1.1621,1.073,1.073,1.0066,0.9616,1.0508,0.7858,0.6087,0.7017,0.5259,0.3677,0.3663,0.3645,0.3621,0.3594,0.3589,0.3589,0.3589,0.3589,0.3589,0.3589,0.247,0.1122,0.0,0.0,0.0,0.0,0.0,0.0,0.0,0.0,0.0,0.5488,0.7068,0.9243,1.0683,1.2221,1.3591,1.4738,1.5056,1.5314,1.5966,1.6511,1.6799,1.6432,1.5467,1.4916,1.5515,1.6781,1.7634,1.7836,1.7419,1.6922,1.6996,1.7066,1.6978,1.6978,1.7249,1.7419,1.7419,1.7704,1.786,1.786,1.786,1.786,1.786,1.786,1.786,1.786,1.786,1.786,1.786,1.786,1.786,1.786,1.786,1.786,1.786,1.786,1.786,1.786,1.7968,1.8077,1.8179,1.8287,1.8375,1.8464,1.8464,1.8498,1.8531,1.8586,1.8477,1.8321,1.8375,1.8179,1.7968,1.8111,1.8124,1.8091,1.8091,1.8091,1.8057,1.7901,1.786,1.786,1.786,1.786,1.786,1.786,1.6514,1.5413,1.5413,1.4065,1.295,1.295,1.2288,1.2061,1.296,1.0281,0.83,0.8341,0.6145,0.4583,0.3681,0.3652,0.3628,0.3607,0.3596,0.3589,0.3589,0.3589,0.3589,0.3589,0.2919,0.1572,0.0,0.0,0.0,0.0,0.0,0.0,0.0,0.0,0.0,0.8026,0.8819,1.0756,1.1163,1.151,1.2526,1.4825,1.3258,1.2253,1.6268,1.7052,1.6905,1.6961,1.6599,1.6178,1.6062,1.6567,1.7298,1.7829,1.7419,1.7143,1.7216,1.7066,1.6978,1.6978,1.7249,1.7419,1.7419,1.7704,1.786,1.786,1.786,1.786,1.786,1.786,1.786,1.786,1.786,1.786,1.786,1.786,1.786,1.786,1.786,1.786,1.786,1.786,1.786,1.786,1.786,1.8057,1.8321,1.8321,1.8498,1.8762,1.8762,1.8674,1.8552,1.8708,1.8565,1.8335,1.8477,1.8335,1.8124,1.8267,1.8213,1.8091,1.8091,1.8091,1.8057,1.7901,1.786,1.786,1.786,1.786,1.786,1.786,1.786,1.786,1.786,1.786,1.786,1.786,1.585,1.5185,1.7632,1.3854,1.073,1.073,0.8559,0.6367,0.3908,0.3652,0.3636,0.3636,0.3607,0.3589,0.3589,0.3589,0.3589,0.3589,0.3594,0.247,0.0,0.0,0.0,0.0,0.0,0.0,0.0,0.0,0.0,0.8822,1.0221,1.2079,1.2904,1.3797,1.476,1.5207,1.4695,1.4538,1.6279,1.6779,1.703,1.6773,1.6653,0.0,1.6809,1.6788,1.7236,1.7765,1.7494,1.7183,1.7136,1.7127,1.6978,1.6978,1.7249,1.7419,1.7419,1.7704,1.786,1.786,1.786,1.786,1.786,1.786,1.786,1.786,1.786,1.786,1.786,1.786,1.786,1.786,1.786,1.786,1.786,1.786,1.786,1.788,1.8091,1.8355,1.864,1.864,1.8694,1.8762,1.8762,1.8728,1.8708,1.8742,1.864,1.8477,1.8511,1.8409,1.8287,1.8423,1.8443,1.8409,1.8409,1.8335,1.8213,1.8057,1.7948,1.786,1.786,1.786,1.786,1.786,1.786,1.786,1.786,1.786,1.786,1.786,1.7418,1.6969,1.786,1.5185,1.2539,1.1041,0.8591,0.6824,0.6193,0.4589,0.366,0.3639,0.3628,0.3614,0.3589,0.3589,0.3589,0.3589,0.3589,0.2919,0.1347,0.0449,0.0,0.0,0.0,0.0,0.0,0.0,0.0,1.0851,1.2258,1.3738,1.4571,1.5296,1.5805,1.5628,1.5635,1.5549,1.4985,1.5799,1.6714,1.6804,1.6934,0.0,1.7039,1.7236,1.7439,1.7847,1.7521,1.7419,1.7197,1.6942,1.6978,1.6978,1.7249,1.7419,1.7419,1.7704,1.786,1.786,1.786,1.786,1.786,1.786,1.786,1.786,1.786,1.786,1.786,1.786,1.786,1.786,1.786,1.786,1.786,1.7935,1.7948,1.7968,1.8213,1.8464,1.8674,1.8674,1.8708,1.8762,1.8762,1.8762,1.8762,1.8762,1.8708,1.862,1.862,1.8531,1.8423,1.8586,1.8586,1.8531,1.8531,1.8477,1.8355,1.8145,1.8023,1.7935,1.788,1.786,1.786,1.786,1.786,1.786,1.786,1.786,1.786,1.786,1.786,1.786,1.786,1.585,1.3864,1.2372,0.9264,0.7264,0.73,0.5028,0.3656,0.3636,0.3625,0.3611,0.3589,0.3589,0.3589,0.3589,0.3589,0.3365,0.247,0.0898,0.0,0.0,0.0,0.0,0.0,0.0,0.0,1.3532,1.4482,1.5513,1.5954,1.5988,1.592,1.5934,1.6042,1.5551,1.3189,1.4663,1.6587,1.6917,1.6971,1.7046,1.6976,1.746,1.7875,1.7895,1.7541,1.7439,1.7439,1.7182,1.6998,1.6998,1.7256,1.7419,1.7419,1.7704,1.786,1.786,1.786,1.786,1.786,1.786,1.786,1.786,1.786,1.786,1.786,1.786,1.786,1.786,1.786,1.786,1.786,1.8023,1.8091,1.8124,1.8287,1.8423,1.8552,1.8552,1.864,1.8762,1.8762,1.8762,1.8762,1.8762,1.8762,1.8762,1.8762,1.8674,1.8586,1.8728,1.8654,1.8552,1.8552,1.8545,1.8464,1.8179,1.8111,1.8057,1.7901,1.786,1.786,1.786,1.786,1.786,1.786,1.786,1.786,1.786,1.786,1.786,1.786,1.6077,1.452,1.452,1.0568,0.77,0.748,0.545,0.3866,0.3636,0.3611,0.3596,0.3589,0.3589,0.3589,0.3589,0.3589,0.3589,0.3594,0.1347,0.0,0.0,0.0,0.0,0.0,0.0,0.0,1.3132,1.4319,1.5493,1.5818,1.6144,1.6408,1.653,1.6585,1.6272,1.5235,1.6062,1.6863,1.6659,1.6904,1.6976,1.7344,1.7534,1.7909,1.7812,1.7909,1.782,1.7602,1.7331,1.7148,1.7148,1.7311,1.7419,1.7419,1.7704,1.786,1.786,1.786,1.786,1.786,1.786,1.786,1.786,1.786,1.786,0.0,1.786,1.786,1.786,1.786,1.786,1.786,1.8023,1.8158,1.8287,1.8423,1.8565,1.8708,1.8708,1.8728,1.8762,1.8762,1.8762,1.8762,1.8762,1.8762,1.8762,1.8762,1.8742,1.8728,1.8742,1.8742,1.8708,1.8708,1.862,1.8498,1.8321,1.8179,1.8057,1.7901,1.786,1.786,1.786,1.786,1.786,1.786,1.786,1.786,1.786,1.786,1.786,1.786,1.7411,1.7197,1.7197,1.4536,1.213,1.0185,0.798,0.5711,0.3863,0.3652,0.3643,0.3594,0.3589,0.3589,0.3589,0.3589,0.3589,0.3594,0.2245,0.0898,0.0,0.0,0.0,0.0,0.0,0.0,1.3573,1.4652,1.5642,1.6157,1.6402,1.6564,1.6714,1.6809,1.6775,1.6456,1.6707,1.6951,1.6856,1.6875,1.713,1.7277,1.765,1.7998,1.7846,1.7964,1.7875,1.7656,1.7378,1.7195,1.7195,1.7331,1.7419,1.7419,1.7704,1.786,1.786,1.786,1.786,1.786,1.786,1.7901,1.7968,1.7968,1.8002,1.8077,1.8077,1.8036,1.7968,1.7901,1.7901,1.7989,1.8124,1.8287,1.8423,1.8586,1.8694,1.8762,1.8762,1.8762,1.8762,1.8762,1.8762,1.8762,1.8762,1.8762,1.8762,1.8762,1.8762,1.8762,1.8762,1.8762,1.8762,1.8762,1.8708,1.8599,1.8464,1.8355,1.8267,1.8111,1.7968,1.786,1.786,1.786,1.786,1.786,1.786,1.786,1.786,1.786,1.786,1.786,1.786,1.786,1.786,1.585,1.343,1.102,0.8591,0.6343,0.384,0.3628,0.3625,0.3594,0.3589,0.3589,0.3589,0.3589,0.3589,0.3594,0.247,0.1122,0.0,0.0,0.0,0.0,0.0,0.0,1.3824,1.4828,1.5757,1.6585,1.6673,1.6598,1.6754,1.689,1.6978,1.6978,1.6998,1.7053,1.6956,1.7116,1.7054,1.718,1.7545,1.786,1.786,1.7978,1.7909,1.7909,1.7446,1.727,1.727,1.7385,1.746,1.746,1.7704,1.786,1.786,1.786,1.786,1.786,1.786,1.7935,1.8091,1.8091,1.8165,1.8321,1.8321,1.8247,1.8124,1.8002,1.8002,1.8111,1.8287,1.8423,1.8552,1.8694,1.8762,1.8762,1.8762,1.8762,1.8762,1.8762,1.8762,1.8762,1.8762,1.8762,1.8762,1.8762,1.8762,1.8762,1.8762,1.8762,1.8762,1.8762,1.8762,1.8728,1.8565,1.8531,1.8498,1.8355,1.8124,1.7935,1.7914,1.7901,1.7901,1.786,1.786,1.786,1.786,1.786,1.786,1.786,1.786,1.786,1.786,1.6077,1.3854,1.0957,0.8957,0.6737,0.3822,0.3596,0.3596,0.3596,0.3594,0.3589,0.3589,0.3589,0.3589,0.3594,0.247,0.1122,0.0,0.0,0.0,0.0,0.0,0.0,1.2366,1.3885,1.552,1.6666,1.6836,1.6761,1.6917,1.6965,1.6978,1.6978,1.708,1.7168,1.7188,1.7203,1.7398,1.7425,1.7552,1.786,1.786,1.7846,1.7826,1.7826,1.7684,1.7589,1.7589,1.7609,1.7616,1.7616,1.7772,1.786,1.786,1.786,1.786,1.786,1.786,1.7935,1.8091,1.8091,1.8165,1.8321,1.8321,1.8301,1.8287,1.8267,1.8199,1.8111,1.8389,1.8511,1.8552,1.8694,1.8762,1.8762,1.8762,1.8762,1.8762,1.8762,1.8762,1.8762,1.8762,1.8762,1.8762,1.8762,1.8762,1.8762,1.8762,1.8762,1.8762,1.8762,1.8762,1.8728,1.8565,1.8531,1.8498,1.8355,1.8287,1.8213,1.8091,1.8057,1.8023,1.788,1.786,1.786,1.786,1.786,1.786,1.786,1.786,1.786,1.786,1.7632,1.5622,1.1172,1.0576,0.8601,0.4082,0.3628,0.3628,0.3628,0.3604,0.3589,0.3589,0.3589,0.3589,0.3594,0.247,0.1122,0.0,0.0,0.0,0.0,0.0,0.0,1.2522,1.4089,1.552,1.6388,1.668,1.6788,1.6944,1.6978,1.7005,1.708,1.7216,1.7324,1.7324,1.75,1.7445,1.7751,1.7826,1.786,1.786,1.786,1.786,1.786,1.7738,1.765,1.765,1.765,1.765,1.765,1.7772,1.786,1.786,1.786,1.7901,1.7989,1.7914,1.8023,1.8335,1.8267,1.8335,1.8565,1.8477,1.8443,1.8443,1.8443,1.8409,1.8335,1.8477,1.8586,1.8674,1.8728,1.8762,1.8762,1.8762,1.8762,1.8762,1.8762,1.8762,1.8762,1.8762,1.8762,1.8762,1.8762,1.8762,1.8762,1.8762,1.8762,1.8762,1.8762,1.8762,1.8742,1.8674,1.8654,1.864,1.8586,1.8498,1.8389,1.8247,1.8145,1.8036,1.7901,1.786,1.786,1.786,1.786,1.786,1.786,1.786,1.786,1.786,1.786,1.6077,1.1172,1.0763,0.8777,0.4058,0.3625,0.3628,0.3611,0.3614,0.3607,0.3589,0.3589,0.3589,0.3594,0.247,0.1122,0.0,0.0,0.0,0.0,0.0,0.0,1.2644,1.3905,1.4964,1.5947,1.6361,1.6612,1.6958,1.7005,1.7019,1.7161,1.7311,1.7433,1.7473,1.7602,1.7518,1.7846,1.786,1.786,1.786,1.786,1.786,1.786,1.7772,1.7704,1.7704,1.7704,1.7704,1.7704,1.7812,1.786,1.786,1.786,1.7935,1.8091,1.7989,1.8111,1.8531,1.8464,1.8552,1.8762,1.864,1.8586,1.8586,1.8586,1.8586,1.8586,1.8586,1.8654,1.8762,1.8762,1.8762,1.8762,1.8762,1.8762,1.8762,1.8762,1.8762,1.8762,1.8762,1.8762,1.8762,1.8762,1.8762,1.8762,1.8762,1.8762,1.8762,1.8762,1.8762,1.8762,1.8762,1.8762,1.8762,1.8762,1.8674,1.8531,1.8301,1.8145,1.8002,1.788,1.786,1.786,1.786,1.786,1.786,1.786,1.786,1.786,1.786,1.7424,1.5413,1.1172,1.0066,0.8067,0.405,0.3614,0.3621,0.3614,0.3621,0.3618,0.36,0.3594,0.3589,0.3594,0.247,0.1122,0.0,0.0,0.0,0.0,0.0,0.0,1.2013,1.2603,1.3356,1.5371,1.5886,1.6123,1.6985,1.708,1.7019,1.7161,1.7311,1.7467,1.7609,1.7758,1.786,1.786,1.786,1.786,1.786,1.786,1.786,1.786,1.786,1.7846,1.7846,1.7846,1.7846,1.7846,1.786,1.786,1.786,1.786,1.7935,1.8091,1.8091,1.8233,1.8531,1.8674,1.8742,1.8762,1.8762,1.8742,1.8742,1.8742,1.8742,1.8742,1.8742,1.8762,1.8762,1.8762,1.8762,1.8762,1.8762,1.8762,1.8762,1.8762,1.8762,1.8762,1.8762,1.8762,1.8762,1.8762,1.8762,1.8762,1.8762,1.8762,1.8762,1.8762,1.8762,1.8762,1.8762,1.8762,1.8762,1.8762,1.8762,1.864,1.8199,1.7989,1.788,1.786,1.786,1.786,1.786,1.786,1.786,1.786,1.786,1.786,1.786,1.585,1.3404,1.0957,0.8724,0.6293,0.3856,0.3607,0.3618,0.3674,0.3625,0.3604,0.3632,0.3604,0.3589,0.3589,0.247,0.1122,0.0,0.0,0.0,0.0,0.0,0.0,1.1491,1.221,1.3003,1.4143,1.493,1.5533,1.5954,1.6381,1.6754,1.7005,1.7249,1.7494,1.7738,1.7826,1.786,1.786,1.786,1.786,1.786,1.786,1.786,1.786,1.786,1.786,1.786,1.786,1.786,1.786,1.786,1.7901,1.8002,1.8002,1.8124,1.8375,1.8287,1.8335,1.8531,1.8694,1.8762,1.8762,1.8762,1.8762,1.8762,1.8762,1.8762,1.8762,1.8762,1.8762,1.8762,1.8762,1.8762,1.8762,1.8762,1.8762,1.8762,1.8762,1.8762,1.8762,1.8762,1.8762,1.8762,1.8762,1.8762,1.8762,1.8762,1.8762,1.8762,1.8762,1.8762,1.8762,1.8762,1.8762,1.8742,1.864,1.862,1.8552,1.8287,1.8111,1.8002,1.8002,1.7935,1.786,1.786,1.786,1.786,1.786,1.786,1.786,1.786,1.585,1.3399,1.0957,0.8501,0.6281,0.383,0.3614,0.3621,0.3621,0.3621,0.3614,0.3607,0.3596,0.3589,0.3589,0.3143,0.2021,0.0,0.0,0.0,0.0,0.0,0.0,1.0968,1.1633,1.242,1.3329,1.4,1.4631,1.5391,1.5906,1.6368,1.6876,1.7216,1.7514,1.7812,1.786,1.786,1.786,1.786,1.786,1.786,1.786,1.786,1.786,1.786,1.786,1.786,1.786,1.788,1.7935,1.7935,0.0,1.8158,1.8165,1.8287,1.8531,1.8498,1.8511,1.8599,1.8708,1.8762,1.8762,1.8762,1.8762,1.8762,1.8762,1.8762,1.8762,1.8762,1.8762,1.8762,1.8762,1.8762,1.8762,1.8762,1.8762,1.8762,1.8762,1.8762,1.8762,1.8762,1.8762,1.8762,1.8762,1.8762,1.8762,1.8762,1.8762,1.8762,1.8762,1.8762,1.8762,1.8762,1.8762,1.8742,1.864,1.8599,1.8586,1.8498,1.8267,1.8091,1.8091,1.7968,1.786,1.786,1.786,1.786,1.786,1.786,1.786,1.786,1.5179,1.2511,1.0957,0.7834,0.5383,0.3814,0.3607,0.3614,0.3607,0.3614,0.3614,0.3604,0.3596,0.3589,0.3589,0.3594,0.2694,0.0673,0.0224,0.0,0.0,0.0,0.0,0.0,0.0,0.0,1.2969,1.3139,1.3444,1.535,1.5676,1.5845,1.6768,1.7182,1.7473,1.7792,1.786,1.786,1.786,1.786,1.786,1.786,1.786,1.786,1.786,1.786,1.786,1.786,1.786,1.7935,1.8077,1.8091,1.8158,1.8321,1.8321,1.8389,1.8531,1.8694,1.8762,1.8762,1.8762,1.8762,1.8762,1.8762,1.8762,1.8762,1.8762,1.8762,1.8762,1.8762,1.8762,1.8762,1.8762,1.8762,1.8762,1.8762,1.8762,1.8762,1.8762,1.8762,1.8762,1.8762,1.8762,1.8762,1.8762,1.8762,1.8762,1.8762,1.8762,1.8762,1.8762,1.8762,1.8762,1.8762,1.8762,1.8762,1.8762,1.8762,1.8762,1.8762,1.8409,1.8111,1.8111,1.7989,1.786,1.786,1.786,1.786,1.786,1.786,1.786,1.786,1.3632,1.073,1.073,0.6493,0.3589,0.3589,0.3589,0.3604,0.3632,0.3607,0.3604,0.3632,0.3604,0.3589,0.3589,0.3594,0.2919,0.1796,0.0673,0.0,0.0,0.0,0.0,1.0331,0.0,0.0,0.0,0.0,0.0,1.3838,1.4211,1.4746,1.6198,1.6388,1.6578,1.7534,1.7704,1.7964,1.7846,1.786,1.786,1.786,1.786,1.786,1.786,1.786,1.786,1.786,1.786,1.788,0.0,1.7935,1.8036,1.8301,1.8518,1.8654,1.8694,1.8742,1.8762,1.8762,1.8762,1.8762,1.8762,1.8762,1.8762,1.8762,1.8762,1.8762,1.8762,1.8762,1.8762,1.8762,1.8762,1.8762,1.8762,1.8762,1.8762,1.8762,1.8762,1.8762,1.8762,1.8762,1.8762,1.8762,1.8762,1.8762,1.8762,1.8762,1.8762,1.8762,1.8762,1.8762,1.8762,1.8762,1.8762,1.8762,1.8762,1.8762,1.8762,1.8762,1.8586,1.8409,1.8409,1.8199,1.8023,1.8023,1.7935,1.786,1.786,1.786,1.786,1.786,1.3632,1.073,1.073,0.6493,0.3589,0.3589,0.3589,0.3594,0.36,0.3594,0.3594,0.36,0.3594,0.3589,0.3589,0.3594,0.2919,0.1796,0.0673,0.0,0.0,0.0,0.0,1.0446,1.0704,1.1029,1.1362,0.0,0.0,1.3329,1.3715,1.4312,1.5967,1.6218,1.6402,1.729,1.7412,1.7662,1.7875,1.7909,1.7944,1.7846,1.786,1.786,1.786,1.786,1.786,1.786,1.786,1.7901,1.7948,1.7948,1.8057,1.8301,1.8531,1.8674,1.8674,1.8728,1.8762,1.8762,1.8762,1.8762,1.8762,1.8762,1.8762,1.8762,1.8762,1.8762,1.8762,1.8762,1.8762,1.8762,1.8762,1.8762,1.8762,1.8762,1.8762,1.8762,1.8762,1.8762,1.8762,1.8762,1.8762,1.8762,1.8762,1.8762,1.8762,1.8762,1.8762,1.8762,1.8762,1.8762,1.8762,1.8762,1.8762,1.8762,1.8762,1.8762,1.8762,1.8762,1.8694,1.8586,1.8464,1.8247,1.8077,1.8002,1.7914,1.786,1.786,1.786,1.786,1.786,1.3632,1.073,1.073,0.6493,0.3589,0.3589,0.3589,0.3589,0.3589,0.3589,0.3589,0.3589,0.3589,0.3589,0.3589,0.3594,0.2694,0.1122,0.0449,0.0,0.0,0.0,0.0,1.0704,1.0853,1.1118,1.1626,0.0,0.0,1.3329,1.3641,1.4075,1.5703,1.6083,1.6286,1.6822,1.6815,1.6829,1.7537,1.769,1.7885,1.7998,1.7812,1.7812,1.7812,1.7812,1.7826,1.786,1.786,1.7914,1.8057,1.8077,1.8145,1.8287,1.8423,1.8511,1.8531,1.8674,1.8742,1.8762,1.8762,1.8762,1.8762,1.8762,1.8762,1.8762,1.8762,1.8762,1.8762,1.8762,1.8762,1.8762,1.8762,1.8762,1.8762,1.8762,1.8762,1.8762,1.8762,1.8762,1.8762,1.8762,1.8762,1.8762,1.8762,1.8762,1.8762,1.8762,1.8762,1.8762,1.8762,1.8762,1.8762,1.8762,1.8762,1.8762,1.8762,1.8762,1.8762,1.8762,1.8762,1.8674,1.8389,1.8233,1.8091,1.7968,1.7914,1.788,1.788,1.788,1.786,1.786,1.3632,1.073,1.073,0.6493,0.3589,0.3589,0.3589,0.3589,0.3589,0.3589,0.3589,0.3589,0.3589,0.3589,0.3589,0.3369,0.2245,0.0,0.0,0.0,0.0,0.0,0.0,1.0846,1.1009,0.0,0.0,0.0,0.0,0.0,1.24,1.2623,1.4034,1.3966,1.3973,1.5025,1.5194,1.5235,1.5616,1.6978,1.7963,1.7878,1.7507,1.7284,1.7738,1.7731,1.7602,1.7846,1.786,1.788,1.7901,1.8023,1.8111,1.8124,1.8287,1.8409,1.8531,1.8565,1.864,1.8762,1.8762,1.8762,1.8762,1.8762,1.8762,1.8762,1.8762,1.8762,1.8762,1.8762,1.8762,1.8762,1.8762,1.8762,1.8762,1.8762,1.8762,1.8762,1.8762,1.8762,1.8762,1.8762,1.8762,1.8762,1.8762,1.8762,1.8762,1.8762,1.8762,1.8762,1.8762,1.8762,1.8762,1.8762,1.8762,1.8762,1.8762,1.8762,1.8762,1.8762,1.8762,1.8708,1.8531,1.8464,1.8443,1.8409,1.8199,1.8036,1.8036,1.7935,1.786,1.786,1.3632,1.073,1.073,0.6493,0.3589,0.3589,0.3589,0.3589,0.3589,0.3589,0.3589,0.3589,0.3589,0.3589,0.3589,0.2694,0.1347,0.0,0.0,0.0,0.0,0.0,0.0,0.0,0.0,0.0,1.1457,0.0,0.0,0.0,0.0,1.2481,1.3607,1.3546,1.3526,1.4265,1.4346,1.4414,1.4794,1.5677,1.6637,1.7829,1.7032,1.6737,1.7404,1.7629,1.7704,1.7846,1.786,1.786,1.786,1.7935,1.7989,1.7989,1.8124,1.8233,1.8301,1.8464,1.8565,1.864,1.8728,1.8762,1.8762,1.8762,1.8762,1.8762,1.8762,1.8762,1.8762,1.8762,1.8762,1.8762,1.8762,1.8762,1.8762,1.8762,1.8762,1.8762,1.8762,1.8762,1.8762,1.8762,1.8762,1.8762,1.8762,1.8762,1.8762,1.8762,1.8762,1.8762,1.8762,1.8762,1.8762,1.8762,1.8762,1.8762,1.8762,1.8762,1.8762,1.8762,1.8762,1.8742,1.8654,1.864,1.8599,1.8443,1.8233,1.8091,1.8091,1.7968,1.7411,1.6305,1.4065,1.1621,0.9174,0.6719,0.4933,0.3589,0.3589,0.3589,0.3589,0.3589,0.3589,0.3589,0.3589,0.3589,0.3589,0.247,0.1122,0.0,0.0,0.0,0.0,0.0,0.0,0.0,0.0,0.0,0.0,0.0,1.1918,0.0,0.0,0.0,0.0,1.3322,1.3322,1.3593,1.3539,1.3607,1.4061,1.4081,1.4916,1.6687,1.6123,1.5949,1.7076,1.748,1.7834,1.7875,1.7944,1.7812,1.786,1.7812,1.7812,1.786,1.7989,1.8057,1.8091,1.8355,1.8498,1.8531,1.8694,1.8762,1.8762,1.8762,1.8762,1.8762,1.8762,1.8762,1.8762,1.8762,1.8762,1.8762,1.8762,1.8762,1.8762,1.8762,1.8762,1.8762,1.8762,1.8762,1.8762,1.8762,1.8762,1.8762,1.8762,1.8762,1.8762,1.8762,1.8762,1.8762,1.8762,1.8762,1.8762,1.8762,1.8762,1.8762,1.8762,1.8762,1.8762,1.8762,1.8762,1.8762,1.8762,1.8762,1.8694,1.8443,1.8287,1.8165,1.8145,1.8002,1.7229,1.5185,1.452,1.2738,0.8284,0.7393,0.6274,0.3814,0.3589,0.3589,0.3589,0.3589,0.3589,0.3589,0.3589,0.3589,0.3594,0.247,0.1122,0.0,0.0,0.0,0.0,0.0,0.0,0.0,0.0,0.0,0.0,1.2121,0.0,0.0,0.0,0.0,1.1877,0.0,1.1898,1.2054,0.0,0.0,0.0,1.2409,1.301,1.3568,1.3198,1.4183,1.7435,1.7149,1.7155,1.7732,1.7676,1.7582,1.7846,1.7616,1.7582,1.7846,1.788,1.7948,1.8091,1.8247,1.8409,1.8531,1.8694,1.8762,1.8762,1.8762,1.8762,1.8762,1.8762,1.8762,1.8762,1.8762,1.8762,1.8762,1.8762,1.8762,1.8762,1.8762,1.8762,1.8762,1.8762,1.8762,1.8762,1.8762,1.8762,1.8762,1.8762,1.8762,1.8762,1.8762,1.8762,1.8762,1.8762,1.8762,1.8762,1.8762,1.8762,1.8762,1.8762,1.8762,1.8762,1.8762,1.8762,1.8762,1.8762,1.8762,1.8742,1.8708,1.8586,1.8443,1.8321,1.8158,1.8016,1.7646,1.564,1.3177,1.0508,0.8507,0.6274,0.3814,0.3589,0.3589,0.3589,0.3589,0.3589,0.3589,0.3589,0.3589,0.3594,0.247,0.1122,0.0,0.0,0.0,0.0,0.0,0.0,0.0,0.0,0.0,0.0,0.0,0.0,1.1918,0.0,1.1694,0.0,0.0,0.0,0.0,0.0,0.0,0.0,1.2353,0.0,1.2488,1.2612,1.3668,1.586,0.0,0.0,1.6974,0.0,0.0,0.0,1.7168,1.7107,1.7582,1.7772,1.7901,1.7948,1.8111,1.8267,1.8409,1.8552,1.8674,1.8762,1.8762,1.8762,1.8762,1.8762,1.8762,1.8762,1.8762,1.8762,1.8762,1.8762,1.8762,1.8762,1.8762,1.8762,1.8762,1.8762,1.8762,1.8762,1.8762,1.8762,1.8762,1.8762,1.8762,1.8762,1.8762,1.8762,1.8762,1.8762,1.8762,1.8762,1.8762,1.8762,1.8762,1.8762,1.8762,1.8762,1.8762,1.8762,1.8762,1.8762,1.8762,1.8762,1.8762,1.864,1.8511,1.8443,1.8247,1.761,1.6199,1.6126,1.452,0.9174,0.895,0.7611,0.3815,0.3589,0.3589,0.3589,0.3589,0.3589,0.3589,0.3589,0.3589,0.3594,0.247,0.1122,0.0,0.0,0.0,0.0,0.0,0.0,1.3037,0.0,0.0,0.0,0.0,0.0,0.0,0.0,0.0,0.0,0.0,0.0,0.0,0.0,0.0,0.0,0.0,1.2284,0.0,1.2271,1.2906,1.3733,0.0,0.0,0.0,0.0,0.0,0.0,0.0,1.6571,1.7378,1.7623,1.7772,1.786,1.8002,1.8158,1.8321,1.8464,1.8599,1.8762,1.8762,1.8762,1.8762,1.8762,1.8762,1.8762,1.8762,1.8762,1.8762,1.8762,1.8762,1.8762,1.8762,1.8762,1.8762,1.8762,1.8762,1.8762,1.8762,1.8762,1.8762,1.8762,1.8762,1.8762,1.8762,1.8762,1.8762,1.8762,1.8762,1.8762,1.8762,1.8762,1.8762,1.8762,1.8762,1.8762,1.8762,1.8762,1.8762,1.8762,1.8762,1.8762,1.8762,1.8674,1.8565,1.8477,1.8287,1.7451,1.5565,1.6811,1.5413,0.895,0.9616,0.8724,0.4039,0.3589,0.3589,0.3589,0.3589,0.3589,0.3589,0.3589,0.3589,0.3594,0.247,0.1122,0.0,0.0,0.0,0.0,0.0,0.0,0.0,0.0,0.0,1.3451,0.0,0.0,0.0,0.0,1.2006,0.0,0.0,0.0,0.0,0.0,0.0,0.0,0.0,0.0,0.0,0.0,0.0,0.0,0.0,0.0,0.0,0.0,0.0,0.0,0.0,0.0,1.7351,1.7433,1.7568,1.7846,1.8002,1.8158,1.8321,1.8464,1.8599,1.8762,1.8762,1.8762,1.8762,1.8762,1.8762,1.8762,1.8762,1.8762,1.8762,1.8762,1.8762,1.8762,1.8762,1.8762,1.8762,1.8762,1.8762,1.8762,1.8762,1.8762,1.8762,1.8762,1.8762,1.8762,1.8762,1.8762,1.8762,1.8762,1.8762,1.8762,1.8762,1.8762,1.8762,1.8762,1.8762,1.8762,1.8762,1.8762,1.8762,1.8762,1.8762,1.8762,1.8762,1.8762,1.8654,1.8375,1.8321,1.8213,1.7914,1.786,1.6077,1.118,1.073,0.8724,0.4039,0.3589,0.3589,0.3589,0.3589,0.3589,0.3589,0.3589,0.3589,0.3594,0.247,0.1122,0.0,0.0,0.0,0.0,0.0,0.0,0.0,0.0,1.5153,1.4462,0.0,0.0,0.0,0.0,0.0,0.0,0.0,0.0,0.0,0.0,0.0,0.0,0.0,0.0,0.0,0.0,0.0,0.0,0.0,0.0,0.0,0.0,0.0,0.0,0.0,0.0,0.0,1.7317,1.7555,1.7846,1.7914,1.8023,1.8165,1.8321,1.8464,1.8599,1.8708,1.8762,1.8762,1.8762,1.8762,1.8762,1.8762,1.8762,1.8762,1.8762,1.8762,1.8762,1.8762,1.8762,1.8762,1.8762,1.8762,1.8762,1.8762,1.8762,1.8762,1.8762,1.8762,1.8762,1.8762,1.8762,1.8762,1.8762,1.8762,1.8762,1.8762,1.8762,1.8742,1.864,1.8694,1.8708,1.8511,1.8552,1.8586,1.8477,1.8464,1.8498,1.8586,1.8599,1.8599,1.862,1.8531,1.8389,1.8199,1.8077,1.6169,1.1184,1.073,0.8724,0.4039,0.3589,0.3589,0.3589,0.3589,0.3589,0.3589,0.3589,0.3589,0.3594,0.247,0.1122,0.0,0.0,0.0,0.0,0.0,0.0,1.5757,1.59,0.0,1.5282,1.4821,0.0,1.3349,0.0,0.0,0.0,0.0,0.0,0.0,0.0,0.0,0.0,0.0,0.0,0.0,1.1097,0.0,0.0,0.0,0.0,0.0,0.0,0.0,0.0,0.0,0.0,0.0,0.0,1.7446,1.7846,1.786,1.7935,1.8091,1.8199,1.8335,1.8531,1.864,1.8708,1.8762,1.8762,1.8762,1.8762,1.8762,1.8762,1.8762,1.8762,1.8762,1.8762,1.8762,1.8762,1.8762,1.8762,1.8762,1.8762,1.8762,1.8762,1.8762,1.8762,1.8762,1.8742,1.8694,1.8674,1.8674,1.8674,1.864,1.862,1.8674,1.864,1.8586,1.8477,1.8531,1.8552,1.8355,1.8389,1.8423,1.8335,1.8321,1.8355,1.8443,1.8464,1.8511,1.8654,1.7889,1.7549,1.8108,1.7549,1.5393,1.1235,1.0775,0.875,0.4039,0.3589,0.3589,0.3589,0.3589,0.3589,0.3589,0.3589,0.3587,0.3576,0.2904,0.1562,0.0,0.0,0.0,0.0,0.0,0.0]}]]